GFSFLT2_prec_radar_003.txt.gz
Reflectivity
-20 -20 -20 -20 -20 -20 -7 3 -19 -20 -20 -20 -20 -20 -20 8 18 -15 17 -1 11 -13 15 18 6 18 19
-20 -20 -20 -20 -20 -20 -19 -20 -20 -20 -20 -20 -20 -19 6 -17 -14 1 -18 -12 24 25 20 19 21 -15 18
-20 -20 -20 -20 -19 -9 -20 -20 -20 -20 -20 -20 -18 -14 2 -3 5 13 17 4 0 5 10 -20 -5 -0 -16
6 4 -20 -9 -19 -20 -20 -20 -20 -20 -20 -5 -8 -20 -20 -20 -20 -19 -20 -20 -20 -20 -20 -20 -20 -20 12
-20 4 -17 -20 -20 -20 -20 -20 -10 5 -20 -20 -20 -20 -20 -20 -20 -20 -14 -18 0 7 11 19 19 20 22
14 -20 -20 -20 -20 -2 5 5 -20 -20 -2 -20 -20 -20 -20 -20 -20 6 6 9 11 6 9 4 18 21 11
-20 -20 -20 2 11 -9 -20 -1 2 -20 -16 -20 -20 -20 -20 -20 -20 -20 5 8 4 10 14 14 14 11 -2
-14 -3 5 -11 -15 -16 -10 -4 -11 -17 1 -2 -20 -20 -20 -20 -20 -20 -2 5 5 8 9 12 15 19 21
9 -6 -20 -20 -2 10 -8 -20 -20 -20 -20 -20 -20 -20 -20 -20 -20 -20 -1 2 -6 3 6 6 11 10 9
-20 -20 -20 -20 -20 -20 3 11 -16 -19 -20 2 -16 -19 -1 -20 -20 -20 -20 -20 -14 -3 -0 8 11 12 8
-20 -20 -20 -20 -20 -20 -20 8 12 2 -20 12 8 -20 -20 -20 -20 -20 -20 -20 -20 -20 -20 -5 17 17 20
-20 -20 -20 -20 -20 -20 -20 -20 -7 13 -3 -2 16 2 1 -12 -20 -20 -20 -19 -16 -8 -4 8 22 31 25
-4 -20 -20 -20 -20 -20 -20 -20 -6 10 5 -17 -2 -17 -14 4 -10 -20 -1 -20 -20 3 15 16 18 20 20
-20 -20 -20 -20 -20 -20 -20 -20 -20 -20 -11 -20 -1 -4 -2 -18 8 -0 4 18 7 7 -1 8 24 29 33
-20 -20 -20 -20 -20 -20 -20 -20 -20 -20 -20 -20 -20 -19 -20 1 7 6 9 -4 12 15 5 -17 3 19 19
-20 -20 -20 -20 -20 -20 -20 -20 -6 -20 -20 -20 -20 -20 -16 -10 -2 -0 15 19 25 24 7 9 -8 1 8
-20 -19 -9 -20 -19 -20 -20 -20 -20 -20 -20 -20 -19 -20 -20 -1 9 24 10 23 27 29 29 14 17 23 26

GFSFLT2_prec_radar_006.txt.gz
Reflectivity
-20 -20 -20 -20 -20 -20 -20 -20 -5 18 -18 -20 -20 -20 -20 -20 -4 3 5 7 -7 14 6 -20 18 20 7
-20 -20 -20 -20 -20 -20 -20 -20 -20 -20 -20 -20 -4 -19 -17 3 19 18 18 17 3 2 18 20 16 17 20
-20 -20 -20 -20 -20 -20 -20 -20 -20 -20 -20 -20 -20 -19 5 6 5 7 4 10 13 15 19 10 1 7 16
-20 -14 -4 -20 -20 -20 -20 -20 -20 -20 -20 -2 -7 -20 -20 -20 -20 -20 -19 -20 -19 -6 -11 -19 -10 -19 -19
13 -14 -20 -20 -20 -20 -20 -20 -20 -15 -20 -20 -20 -20 -20 -20 -20 -20 -5 6 -5 11 16 13 15 10 -20
-20 -20 -20 -20 -20 -19 4 -20 -20 -20 -20 -20 -20 -20 -20 -20 -20 -3 6 9 0 -8 14 1 10 4 16
-20 -20 -20 -14 4 -20 -20 -14 -20 -20 -18 -17 -20 -20 -20 -20 -20 -20 -1 6 -0 12 14 14 -0 4 12
-20 -13 3 -19 -20 -17 -19 -2 -20 -20 -20 -2 -20 -20 -20 -20 -20 -20 -2 2 6 11 12 14 15 17 16
10 -8 -20 -20 -14 5 -11 -20 -20 -20 -20 -20 -20 -20 -20 -20 -20 -20 -16 -16 -12 1 -1 2 6 5 2
-20 -20 -20 -20 -20 -20 -20 6 -18 -14 -20 2 -17 -18 7 -2 -20 -20 -20 -20 -20 -20 -4 -1 3 2 -1
-20 -20 -20 -20 -20 -20 -20 -0 11 3 -20 12 5 -20 -11 -19 -20 -19 -20 -20 -20 -19 -20 -7 9 10 8
-20 -20 -20 -20 -20 -20 -20 -20 -15 13 1 -18 14 -1 2 -11 -11 -6 3 1 -15 -20 -18 -8 1 24 22
-20 -20 -20 -20 -20 -20 -20 -20 -17 5 -11 -20 -8 -14 0 9 3 -20 9 -9 -18 -19 -18 5 4 4 12
-20 -20 -20 -20 -20 -20 -20 -20 -20 -20 -20 -20 -20 -8 5 3 17 12 0 17 -0 -17 7 -0 13 14 21
-20 -20 -20 -20 -20 -20 -20 -20 -20 -20 -20 -20 -19 3 1 1 -1 10 1 6 21 29 8 -6 9 19 28
-20 -20 -20 -20 -20 -20 -20 -20 -20 -20 -20 -20 -20 -15 -12 -3 -7 5 -13 -19 5 25 18 17 8 29 27
-20 -20 -14 -20 -20 -20 -20 -20 -20 -20 -20 -20 -20 -20 -20 -20 -20 5 9 -6 -11 5 21 11 16 21 28

GFSFLT2_prec_radar_009.txt.gz
Reflectivity
-20 -20 -20 -20 -20 -20 -20 -20 -16 -20 -20 -19 2 -17 -0 -2 -9 -8 -4 -0 17 19 19 19 20 21 19
-20 -20 -20 -20 -20 -11 7 -3 -20 -20 -20 -20 -20 -13 1 6 10 14 18 20 17 13 18 14 16 -18 16
-20 -20 -17 6 2 -17 -20 -20 -20 -20 -20 -20 -20 -20 -20 -16 8 6 5 10 -16 -1 17 15 9 16 17
-4 4 -14 -20 -20 -20 -20 -20 -13 -20 -20 -16 -20 -20 -20 -20 -16 -20 -20 -20 -13 -15 6 4 3 -5 -15
8 -20 -20 -20 -20 -20 -4 -1 -0 -3 -20 -20 -20 -20 -20 -20 -20 -20 -15 3 8 -6 13 14 10 13 -18
6 -9 -20 -20 -20 7 11 6 -20 -20 -20 -20 -20 -20 -20 -20 -20 -5 -0 5 4 -11 9 5 13 13 12
-20 -20 -20 -20 11 7 7 8 7 -20 -7 -20 -20 -20 -20 -20 -20 -20 -3 -13 3 9 13 13 12 12 13
-20 -7 12 3 3 6 7 10 -3 -20 -20 -19 -20 -20 -20 -20 -20 -20 -20 0 1 6 9 10 9 13 15
8 -2 -20 -20 -14 4 3 -20 -20 -20 -20 -20 -20 -20 -20 -20 -20 -20 -20 -20 -18 -7 2 4 5 1 -3
-20 -20 -20 -20 -20 -20 -5 1 -20 -13 -20 -6 -18 -13 -1 -19 -5 -18 -13 6 -20 -20 -1 5 6 2 7
-20 -20 -20 -20 -20 -20 -20 7 5 -4 -20 11 5 -20 -2 -15 -20 -18 3 -0 -12 -20 -20 3 19 16 18
-20 -20 -20 -20 -20 -20 -20 -20 -9 5 -5 2 11 2 -6 -20 -20 -20 -12 4 -7 -14 -20 -20 -17 -1 18
-20 -20 -20 -20 -20 -20 -20 -20 -20 -11 -15 -20 1 -20 -12 6 8 -20 -4 -11 2 1 -9 -3 3 -13 -9
-20 -20 -20 -20 -20 -20 -20 -20 -20 -20 -6 -17 -15 5 4 -20 3 -9 -6 6 1 20 27 18 1 -4 10
-20 -20 -20 -20 -20 -20 -20 -20 -20 -20 -20 -20 -20 -20 -19 -20 -20 -10 -12 -20 -2 23 22 13 -3 27 24
-20 -20 -20 -20 -20 -20 -20 -20 -20 -20 -20 -19 -20 -20 -20 2 -13 -20 -12 -20 -3 20 25 20 13 -3 3
-20 -20 -20 -20 -20 -20 -20 -20 -20 -20 -20 -20 -20 -17 -20 -20 -20 -20 11 -15 -17 -15 18 28 14 -8 22

GFSFLT2_prec_radar_012.txt.gz
Reflectivity
-20 -20 -20 -20 -20 -20 -20 -20 -20 -20 -20 -20 -20 -20 -20 1 -4 -10 -8 -7 -5 17 18 19 19 21 22
-20 -20 -20 -20 -20 -20 -20 -20 -20 -20 -20 -20 -20 -2 -20 -19 -19 -17 9 12 3 16 18 18 17 17 18
-20 -20 1 -15 -5 -20 -20 -20 -20 -20 -20 -20 -20 -20 -20 -20 -20 -20 -20 3 4 7 -15 -3 -2 -20 -20
-3 10 4 -20 -20 -20 -20 -20 -20 -20 -20 -20 -20 -20 -20 -20 -20 -20 -1 -8 -20 -16 -6 3 5 12 1
17 8 -3 -20 -20 -20 -9 1 -11 -20 -20 -20 -20 -20 -20 -20 -20 -20 -20 -20 4 8 10 12 12 -7 3
11 6 -20 -20 -20 -0 10 9 0 -20 -20 -20 -20 -20 -20 -20 -20 -20 -10 1 -9 0 10 13 13 11 12
4 -20 -19 -12 -9 14 8 10 7 -18 -1 -8 -20 -20 -20 -20 -20 -20 -20 -5 5 9 10 10 9 10 12
-20 -20 2 9 6 3 8 5 -2 -16 -20 -20 -20 -20 -20 -20 -20 -20 -20 -20 -4 7 8 10 7 9 10
1 7 -7 -17 -4 -0 7 9 -20 -20 -20 -17 -20 -20 -20 -20 -20 -20 -17 8 3 10 12 11 9 9 4
-20 -20 -20 -20 -20 -20 1 8 5 -8 -20 -11 -19 -12 -13 -20 -20 -20 -20 -20 -20 -20 4 7 10 13 16
-20 -20 -20 -20 -20 -20 -15 7 8 -8 -20 7 6 4 7 -12 -20 -20 -20 -20 -20 -20 -20 -20 2 18 26
-20 -20 -20 -9 -20 -9 -9 0 3 4 -8 4 11 8 5 -19 -20 -20 -20 -20 -20 1 2 -12 -1 4 12
-20 -3 -3 -19 -16 -0 -2 -2 -1 -3 -15 -19 5 3 7 2 -15 -20 -20 -20 -18 -18 10 16 25 18 14
-18 -20 -20 -20 -20 -12 3 -20 -16 -20 -20 -20 -14 8 5 1 1 -20 -20 -16 -5 -19 -15 -13 12 11 18
-14 -12 -20 -20 -20 -20 0 2 -20 -20 -20 -20 -20 -3 4 4 -20 -20 -20 -20 -4 -17 -1 -2 1 24 20
-4 -5 -20 -20 -17 -9 -14 -20 -20 -20 -20 -7 2 -8 -18 -20 -20 -2 -10 -0 -18 -20 2 11 -5 -7 -12
-17 -20 2 3 -4 -20 -20 -20 -20 -20 -20 5 4 7 5 -20 -20 -15 -14 -20 -20 -6 -13 4 10 16 22

GFSFLT2_prec_radar_015.txt.gz
Reflectivity
-20 -20 -20 -20 -20 -20 -20 -20 -20 -20 -20 -20 -20 -20 -20 -7 2 -17 -20 2 -3 -7 -3 19 19 19 19
-20 -20 -20 -20 -20 -20 -20 -20 -20 -20 -20 -20 -20 0 -20 -20 -8 -4 -18 -20 -14 11 14 -0 22 17 18
-20 -20 -20 -20 -12 -20 -20 -20 -20 -20 -20 -20 -20 -20 -20 -1 -20 -20 -9 -2 -2 -12 8 11 -5 -10 7
-20 -20 1 8 -20 -20 -20 -20 -20 -20 -20 -20 -20 -20 -20 -20 -20 -20 -12 -11 -1 -7 4 11 9 5 -0
-2 11 -4 -20 -20 -20 -20 -20 -20 -13 -20 -20 -20 -20 -20 -20 -20 -20 -20 -20 -4 -1 -1 11 13 15 12
12 -5 -20 -20 -20 -16 -20 -4 -19 -20 -20 -20 -20 -20 -20 -20 -20 -20 -20 -20 -7 3 7 11 11 7 5
2 -6 -20 -20 -20 -20 4 3 -20 -20 -20 -20 -20 -20 -20 -20 -20 -20 -20 -20 -20 5 2 8 10 11 12
-20 -20 -20 -17 13 11 -11 -20 -20 -20 -4 -18 -20 -20 -20 -20 -20 -20 -20 -20 -20 -20 -17 2 12 12 12
-20 -13 0 -15 -17 -20 -20 1 -20 -20 -20 -20 -20 -20 -20 -20 -20 -20 -20 -20 -20 -20 -20 -20 -5 11 13
-20 -20 -20 -20 -20 -20 -13 1 -20 -20 -20 -4 -17 -19 -12 -20 -20 -20 -20 -20 -20 -20 -20 -20 -14 10 6
-20 -20 -20 -20 -20 -20 -20 -0 9 -16 -20 6 6 -20 -11 -20 -20 -20 -20 -20 -20 -20 -20 -18 3 22 28
-20 -20 -20 -20 -20 -16 -20 -20 -16 -15 -20 -5 13 -3 0 -9 -20 -20 -20 -20 -20 -20 -20 -20 -16 2 10
-20 -20 -20 -20 -20 -20 -5 -1 -6 -19 -20 -20 -19 -16 -3 -2 -19 -20 -20 -20 -20 -20 -20 -9 5 23 15
-20 -20 -20 -20 -20 -20 -16 -20 -20 -20 -20 -20 -20 -1 2 -20 -8 -13 -20 -20 -20 -19 -6 -20 1 14 -2
-13 -20 -20 -20 -20 -20 -20 -20 -11 -20 -20 -20 -20 -20 -20 -15 -14 -20 -20 -20 -15 -20 -20 -20 -3 -13 12
-20 -20 -20 -20 -20 -20 -20 -20 -20 -20 -20 -20 -20 -13 -20 -20 -20 -17 -20 -20 -20 -20 -20 4 -10 -19 -15
-20 -20 -20 -20 -20 -20 -20 -20 -20 -20 -20 -20 -16 -11 -4 -20 -20 -20 10 -20 -20 -19 -19 -16 2 -20 -19

GFSFLT2_prec_radar_018.txt.gz
Reflectivity
-20 -20 -20 -20 -20 -20 -20 -20 -20 -20 -20 -20 -20 -20 -20 1 -3 -2 4 5 10 12 13 15 22 20 19
-20 -20 -20 -20 -20 -20 -20 -20 -20 -20 -20 -20 -20 -20 -20 -20 -20 1 -2 8 6 12 14 13 9 9 6
-20 -20 -20 -20 -20 -20 -20 -20 -20 -20 -20 -20 -20 -20 -20 -3 -20 1 -8 -6 -18 0 5 5 9 12 4
-20 -20 -20 -20 -7 -20 -20 -20 -20 -20 -20 -20 -20 -20 -20 -20 -20 -20 -20 -13 -20 -20 5 -8 -2 -1 9
-6 -17 1 -20 -20 -20 -20 -20 -20 -20 -20 -20 -20 -20 -20 -20 -20 -20 -20 -16 2 1 -17 3 -1 8 11
7 -14 -20 -20 -20 -20 -20 -20 -20 -20 -20 -20 -20 -20 -20 -20 -20 -20 -20 -19 8 6 -1 4 4 8 11
-20 -10 -20 -20 -20 -20 -20 -7 -9 -20 -20 -20 -20 -20 -20 -20 -20 -20 -20 -20 -20 -14 6 4 7 8 9
-13 -20 -20 -16 6 10 -7 -20 -20 -20 -20 -19 -20 -20 -20 -20 -20 -20 -20 -20 -20 -20 -20 -12 -1 11 12
-20 -12 2 -15 -20 -20 -20 -20 -20 -20 -20 -20 -20 -20 -20 -20 -20 -20 -20 -20 -20 -20 -20 -20 -17 7 5
-20 -20 -20 -20 -20 -20 -20 -20 -20 -20 -20 8 -11 -15 -9 -20 -20 -20 -20 -20 -20 -20 -20 -20 -20 -20 -20
-20 -20 -20 -20 -20 -20 -20 -20 -0 -16 -20 8 7 -20 -2 -20 -20 -20 -20 -20 -20 -20 -20 -20 -20 -16 -17
-20 -20 -20 -20 -20 -20 -20 -20 -20 -20 -20 -13 14 -6 -1 -8 -20 -20 -20 -20 -20 -20 -20 -20 -20 -20 -2
-20 -20 -20 -20 -20 -20 -20 -20 -20 -20 -20 -20 -17 -19 -6 -4 -18 -20 -20 -20 -20 -20 -20 -20 -20 -20 -20
-20 -20 -20 -20 -20 -20 -20 -20 -20 -20 -20 -20 -20 -20 -6 -20 -14 -14 -20 -20 -20 -20 -20 -18 -20 -20 -20
-20 -20 -20 -20 -20 -20 -20 -20 -20 -20 -20 -20 -20 -20 -20 -20 -18 -20 -20 -20 -20 -20 -20 -20 -20 -16 -20
-20 -20 -20 -20 -20 -20 -20 -20 -20 -20 -20 -20 -20 -20 -20 -20 1 -3 -9 -20 -20 -20 -20 -20 -20 -20 -20
-20 -20 -20 -20 -20 -20 -20 -20 -20 -20 -20 -20 -20 -9 -3 -20 -20 6 15 4 -20 -20 -20 -20 -17 -20 -20

GFSFLT2_prec_radar_021.txt.gz
Reflectivity
-20 -20 -20 -20 -20 -20 -20 -20 -20 -20 -20 -20 -20 -20 -20 -20 -20 -20 -10 -9 8 10 20 20 18 20 19
-20 -20 -20 -20 -20 -20 -20 -20 -20 -20 -20 -20 -20 -20 -20 -20 4 -8 -20 3 12 15 13 9 10 9 22
-20 -20 -20 -20 -20 -20 -20 -20 -20 -20 -20 -20 -20 -20 -10 -6 -20 -20 -19 -20 -20 -14 -6 0 7 11 11
-20 -20 -20 -20 -20 -20 -20 -20 -20 -20 -20 -20 -20 -20 -20 -20 -20 -20 -20 -10 2 -7 7 10 13 13 11
-20 -20 3 -20 -20 -20 -20 -20 -20 -20 -20 -20 -20 -20 -20 -20 -20 -20 -20 0 1 2 7 9 12 13 15
4 -11 -20 -20 -20 -20 -20 -20 -20 -20 -20 -20 -20 -20 -20 -20 -20 -20 -20 -7 2 8 7 13 9 13 11
-20 -20 -20 -20 -20 -20 -15 2 -7 -20 -20 -20 -20 -20 -20 -20 -20 -20 -20 -20 -17 -5 10 9 10 10 9
-20 -20 -20 -15 5 -7 -20 -20 -20 -20 -20 -20 -20 -20 -20 -20 -20 -20 -20 -20 -20 -13 -20 -20 -20 -12 -5
-20 -6 3 -15 -20 -20 -20 -20 -20 -20 -20 -20 -20 -20 -20 -20 -20 -20 -20 -20 -20 -20 -20 -6 -20 -8 6
-20 -20 -20 -20 -20 -20 -20 -20 -20 -18 -20 -20 -20 -20 -14 -20 -20 -20 -20 -20 -20 -20 -20 -20 -20 -20 -20
-20 -20 -20 -20 -20 -20 -20 -20 -20 -20 -20 -2 7 -20 -8 -20 -20 -20 -20 -20 -20 -20 -20 -20 -20 -12 -20
-20 -20 -20 -20 -20 -20 -20 -20 -20 -20 -20 -20 9 -14 -3 -15 -20 -20 -20 -20 -20 -20 -20 -20 -20 -20 -2
-20 -20 -20 -20 -20 -20 -20 -20 -20 -20 -20 -20 -20 -20 -19 -15 -20 -20 -20 -20 -20 -20 -20 -20 -20 -20 -20
-20 -20 -20 -20 -20 -20 -20 -20 -20 -20 -20 -20 -20 -17 2 -18 -16 -18 -20 -20 -20 -20 -20 -20 -20 -20 -20
-20 -20 -20 -20 -20 -20 -20 -20 -20 -20 -20 -20 -20 -20 -20 -20 -1 -20 -20 -20 -20 -20 -20 -20 -20 -20 -20
-20 -20 -20 -20 -20 -20 -20 -20 -20 -20 -20 -20 -20 -20 -20 -10 6 1 -11 -20 -20 -20 -20 -17 -18 -20 -20
-20 -20 -20 -20 -19 -20 -20 -20 -20 -20 -20 -20 4 5 3 -20 -5 5 17 4 -20 -20 -20 -20 -14 -20 -20

GFSFLT2_prec_radar_024.txt.gz
Reflectivity
-20 -20 -20 -20 -20 -20 -20 -20 -20 -20 -20 -20 -20 -17 -20 -20 -17 -18 -20 7 11 11 7 16 20 17 19
-20 -20 -20 -20 -20 -20 -20 -20 -20 -20 -20 -20 -20 -20 -20 -20 -20 7 8 -10 4 -2 6 -0 -6 10 8
-20 -20 -20 -20 -20 -20 -20 -20 -20 -20 -20 -20 -20 -20 -20 1 -10 -20 -20 -20 -17 -16 -20 -15 5 9 10
-20 -20 -20 -20 -20 -20 -20 -20 -20 -20 -20 -20 -20 -20 -20 -20 -20 -20 -20 -20 -16 2 3 4 9 12 13
-20 -20 -20 -20 -20 -20 -20 -20 -20 -20 -20 -20 -20 -20 -20 -20 -20 -20 -20 -9 3 -5 10 10 9 12 14
-20 -20 -20 -20 -20 -20 -20 -20 -20 -20 -20 -20 -20 -20 -20 -20 -20 -20 -20 -20 -1 9 11 10 12 9 11
-20 -20 -20 -20 -20 -20 -20 -13 -20 -20 -20 -20 -20 -20 -20 -20 -20 -20 -20 -20 -20 1 2 5 7 11 15
-20 -20 -20 -19 2 -7 -20 -20 -20 -20 -20 -20 -20 -20 -20 -20 -20 -20 -20 -20 -20 -6 -1 0 -6 -9 7
-20 -8 -5 -15 -20 -20 -20 -20 -20 -20 -20 -20 -20 -20 -20 -20 -20 -20 -20 -20 -20 -20 -20 -2 -0 -3 6
-20 -20 -20 -20 -20 -20 -20 -20 -20 -20 -20 -20 -20 -20 -20 -20 -20 -20 -20 -20 -20 -20 -20 -20 -3 -20 -20
-20 -20 -20 -20 -20 -20 -20 -20 -20 -20 -20 8 -0 -20 -3 -20 -20 -20 -20 -20 -20 -20 -20 -20 -20 -10 -20
-20 -20 -20 -20 -20 -20 -20 -20 -20 -20 -20 -18 13 -20 -9 -12 -20 -20 -20 -20 -20 -20 -20 -20 -20 -16 -0
-20 -20 -20 -20 -20 -20 -20 -20 -20 -20 3 5 12 -4 -10 -13 -20 -20 -20 -20 -20 -20 -20 -20 -20 -20 -20
-20 -20 -20 -20 -20 -20 -20 -20 -20 -20 -20 -9 -9 -9 -1 -20 -15 -17 -20 -20 -20 -20 -20 -20 -20 -20 -20
-20 -20 -20 -20 -20 -20 -20 -20 -20 -20 -20 -20 -20 -20 -20 -17 7 -15 -20 -20 -20 -20 -20 -20 -20 -20 -20
-20 -20 -20 -20 -20 -20 -20 -20 -20 -20 -20 -20 -20 -20 -19 3 4 -4 -9 -20 -20 -20 -20 6 -18 -9 -20
-20 -20 -20 -20 -19 -20 -20 -20 -20 -20 -20 -20 -20 -2 3 -20 -9 12 20 11 -19 -20 -20 -20 -20 -20 -20

GFSFLT2_prec_radar_027.txt.gz
Reflectivity
-20 -20 -20 -20 -20 -20 -20 -20 -20 -20 -20 -20 -4 -20 -14 -15 -20 -20 -3 3 12 11 13 12 13 15 14
-20 -20 -20 -20 -20 -20 -20 -20 -20 -20 -20 -20 -20 -20 -20 -20 -16 5 9 10 9 3 -5 0 -5 5 2
-20 -20 -20 -20 -20 -20 -20 -20 -20 -20 -20 -20 -20 -20 1 2 2 -9 -16 -19 -18 -20 -7 -2 -20 -20 -14
-20 -20 -20 -20 -20 -20 -20 -20 -20 -20 -20 -20 -20 -20 -20 -20 -20 -20 -20 -20 -20 -20 -3 -12 -5 9 12
-20 -20 -20 -20 -20 -20 -20 -20 -20 -20 -20 -20 -20 -20 -20 -20 -20 -20 -20 -20 -14 2 4 8 5 9 12
-20 -20 -20 -20 -20 -20 -20 -20 -20 -20 -20 -20 -20 -20 -20 -20 -20 -20 -20 -20 -3 3 7 10 6 11 11
-20 -20 -20 -20 -20 -20 -20 -19 -20 -20 -20 -20 -20 -20 -20 -20 -20 -20 -20 -20 -20 -1 -1 6 -1 10 11
-20 -20 -20 -20 -12 0 -13 -20 -20 -20 -20 -20 -20 -20 -20 -20 -20 -20 -20 -20 -20 -20 2 5 6 4 4
-20 -20 -12 -15 -20 -20 -20 -20 -20 -20 -20 -20 -20 -20 -20 -20 -20 -20 -20 -20 -20 -20 -20 -1 -0 4 7
-20 -20 -20 -20 -20 -20 -20 -20 -20 -20 -20 -20 -20 -20 -20 -20 -20 -20 -20 -20 -20 -20 -20 -20 -1 -17 -20
-20 -20 -20 -20 -20 -20 -20 -20 -20 -20 -20 -7 -2 -20 -6 -20 -20 -20 -20 -20 -20 -20 -20 -20 -20 -3 -14
-20 -20 -20 -20 -20 -20 -20 -20 -20 -20 -20 -20 13 -18 -8 -12 -20 -20 -20 -20 -20 -20 -20 -20 -20 -15 -1
-20 -20 -20 -20 -20 -20 -20 -20 -20 -20 -20 -20 -18 -20 -4 -7 -20 -20 -20 -20 -20 -20 -20 -20 -20 -20 -20
-20 -20 -20 -20 -20 -20 -20 -20 -20 -20 -20 -20 -20 -19 -6 -19 -15 -17 -20 -20 -20 -20 -20 -20 -20 -20 -20
-20 -20 -20 -20 -20 -20 -20 -20 -20 -20 -20 -20 -20 -20 -20 -12 10 -13 -20 -20 -20 -20 -20 -20 -20 -20 -20
-20 -20 -20 -20 -20 -20 -20 -20 -20 -20 -20 -20 -20 -20 -8 13 14 10 1 -20 -20 -20 -20 -1 -17 -0 -17
-20 -20 -20 -20 -20 -20 -20 -20 -20 -20 -20 -20 -20 -8 -7 -20 12 17 20 13 -7 -17 -20 -20 -20 -20 -20

GFSFLT2_prec_radar_030.txt.gz
Reflectivity
-20 -20 -20 -20 -20 -20 -20 -20 -20 -20 -20 -20 -20 -4 -9 -14 -20 -20 -18 11 9 5 12 15 13 13 14
-20 -20 -20 -20 -20 -20 -20 -20 -20 -20 -20 -20 -20 -20 -20 -7 -20 -20 -19 6 10 11 5 12 12 9 -5
-20 -20 -20 -20 -20 -20 -20 -20 -20 -20 -20 -20 -20 -20 -20 -11 -5 -19 -20 -20 -17 -20 -20 -20 -20 -20 -14
-20 -20 -20 -20 -20 -20 -20 -20 -20 -20 -20 -20 -20 -20 -20 -20 -20 -20 -20 -20 -7 0 3 2 3 -8 3
-20 -20 -20 -20 -20 -20 -20 -20 -20 -20 -20 -20 -20 -20 -20 -20 -20 -20 -20 -20 -19 0 8 11 11 11 10
-20 -20 -20 -20 -20 -20 -20 -20 -20 -20 -20 -20 -20 -20 -20 -20 -20 -20 -20 -20 -20 2 2 9 11 12 12
-20 -20 -20 -20 -20 -20 -20 -20 -20 -20 -20 -20 -20 -20 -20 -20 -20 -20 -20 -20 -20 -20 -6 3 5 5 10
-20 -20 -20 -20 -20 -19 -20 -20 -20 -20 -20 -20 -20 -20 -20 -20 -20 -20 -20 -20 -20 -20 -5 4 7 3 10
-20 -20 -16 -18 -20 -20 -20 -20 -20 -20 -20 -20 -20 -20 -20 -20 -20 -20 -20 -20 -20 -20 -20 -20 2 0 3
-20 -20 -20 -20 -20 -20 -20 -20 -20 -20 -20 -20 -20 -20 -20 -20 -20 -20 -20 -20 -20 -20 -20 -20 -20 -17 -20
-20 -20 -20 -20 -20 -20 -20 -20 -20 -20 -20 3 -5 -20 -14 -20 -20 -20 -20 -20 -20 -20 -20 -20 -20 -10 -20
-20 -20 -20 -20 -20 -20 -20 -20 -20 -20 -20 -20 9 -20 -18 -20 -20 -20 -20 -20 -20 -20 -20 -20 -20 -20 -11
-20 -20 -20 -20 -20 -20 -20 -20 -20 -20 -20 -20 -20 -20 -18 -12 -20 -20 -20 -20 -20 -20 -20 -20 -20 -20 -20
-20 -20 -20 -20 -20 -20 -20 -20 -20 -20 -20 -20 -20 -20 -19 -20 -18 -20 -20 -20 -20 -20 -20 -20 -20 -20 -20
-20 -20 -20 -20 -20 -20 -20 -20 -20 -20 -20 -20 -20 -20 -20 -20 -6 -16 -20 -20 -20 -20 -20 -20 -20 -20 -20
-20 -20 -20 -20 -20 -20 -20 -20 -20 -20 -20 -20 -20 -20 -20 -7 10 9 3 -20 -20 -20 -20 -4 -19 -20 -16
-20 -20 -20 -20 -20 -20 -20 -20 -20 -20 -20 -20 -20 -20 -3 -20 -19 15 18 13 -11 -20 -20 -20 -19 -20 -20

GFSFLT2_prec_radar_033.txt.gz
Reflectivity
22 26 15 -20 -20 -20 -20 -20 -20 -20 -20 -20 -20 -8 -6 -19 -20 -20 -20 -16 1 10 9 14 13 15 15
16 14 -0 -19 -9 -20 -20 -20 -20 -20 -20 -20 -20 -20 -20 -20 -20 -1 -20 0 -18 -19 -18 -19 4 -19 7
11 -6 2 5 -20 -20 -20 -20 -20 -20 -20 -20 -20 -20 -20 -20 -7 -7 -20 -20 -20 -14 -17 -20 -20 -20 -20
11 5 -14 -20 -20 -20 -20 -20 -20 -20 -20 -20 -20 -20 -20 -20 -20 -20 -20 -20 -20 -20 -3 1 1 -18 0
6 -20 -20 -20 -20 -20 -20 -20 -20 -20 -20 -20 -20 -20 -20 -20 -20 -20 -20 -20 -20 -3 -1 3 8 11 13
-15 -20 -20 -20 -20 -20 -20 -20 -20 -20 -20 -20 -20 -20 -20 -20 -20 -20 -20 -20 -20 -9 -1 0 4 7 11
-7 -10 -18 -20 -20 -20 -20 3 -20 -20 -20 -20 -20 -20 -20 -20 -20 -20 -20 -20 -20 -20 -12 3 5 9 11
-20 -20 -20 -20 -13 -13 0 -10 -20 -20 -20 -20 -20 -20 -20 -20 -20 -20 -20 -20 -20 -20 -20 0 2 4 5
-20 -20 -17 -17 -20 -20 -20 -20 -20 -20 -20 -20 -20 -20 -20 -20 -20 -20 -20 -20 -20 -20 -20 -20 -3 2 5
-20 -20 -20 -20 -20 -20 -20 -20 -4 -20 -20 -20 -20 -20 -20 -20 -20 -20 -20 -20 -20 -20 -20 -20 -20 -2 -1
-20 -20 -20 -20 -20 -20 -20 -20 -12 -20 -20 -11 -20 -20 -9 -20 -20 -20 -20 -20 -20 -20 -20 -20 -20 -7 5
-20 -20 -20 -20 -20 -20 -20 -20 -20 -20 -20 -13 -8 -20 -20 -20 -20 -20 -20 -20 -20 -20 -20 -20 -20 -20 -12
-20 -20 -20 -20 -20 -20 -20 -20 -20 -20 -20 -20 -20 -20 -20 -20 -20 -20 -20 -20 -20 -20 -20 -20 -20 -20 -5
-20 -20 -20 -20 -20 -20 -20 -20 -20 -20 -20 -20 -20 -20 -20 -20 -18 -20 -20 -20 -20 -20 -20 -20 -20 -18 -1
-20 -20 -20 -20 -20 -20 -20 -20 -20 -20 -20 -20 -20 -20 -20 -20 -20 -20 -20 -20 -20 -20 -20 -20 -20 -18 -20
-20 -20 -20 -20 -20 -20 -20 -20 -20 -20 -20 -20 -20 -20 -20 -20 -20 -20 -20 -8 -20 -20 -4 -2 -6 -20 -6
-20 -20 -20 -20 -20 -20 -20 -20 -20 -20 -20 -20 -19 -18 -6 -20 -20 -15 9 -1 3 -0 -20 -19 -20 -20 -19

GFSFLT2_prec_radar_036.txt.gz
Reflectivity
36 21 14 1 23 15 -8 -20 -20 -20 -20 -20 -20 -20 -20 -14 -20 -20 -19 -20 -20 -20 -20 5 12 13 13
33 33 29 27 27 18 11 10 -11 -20 -20 -20 -20 -20 -20 -20 -20 -12 -3 -17 -3 0 -20 -19 -19 -20 -17
30 17 17 22 29 24 19 17 6 -17 -20 -20 -20 -20 -20 -20 -20 -20 -20 -20 -20 -20 -16 -5 2 -16 -20
5 -16 -1 10 24 18 5 -13 -7 -19 -20 -20 -20 -20 -20 -20 -20 -20 -20 -20 -20 -20 -20 -13 -9 -2 1
-5 8 21 15 -1 -15 -17 -20 -20 -20 -20 -20 -20 -20 -20 -20 -20 -20 -20 -20 -20 -20 -20 -5 -3 -0 4
9 -7 -14 -20 -20 -20 -20 -20 -20 -20 -20 -20 -20 -20 -20 -20 -20 -20 -20 -20 -20 -20 -4 0 -3 5 11
-20 -20 -20 -20 -20 -20 -17 -6 -10 -20 -20 -20 -20 -20 -20 -20 -20 -20 -20 -20 -20 -20 -20 -3 1 2 6
-20 -20 -20 -20 -19 -14 4 -8 -20 -20 -20 -12 -20 -20 -20 -20 -20 -20 -20 -20 -20 -20 -20 -11 -2 -1 3
-20 -20 -20 -20 -20 -20 -20 -3 -7 -20 -20 -20 -20 -20 -20 -20 -20 -20 -20 -20 -20 -20 -20 -20 -20 -1 -6
-20 -20 -20 -20 -20 -20 -20 -3 -4 -19 -20 -20 -20 -20 -20 -20 -20 -20 -20 -20 -20 -20 -20 -20 -20 -9 -2
-20 -20 -20 -20 -20 -20 -20 -20 -6 -11 -20 -8 -17 -20 -4 -19 -20 -20 -20 -20 -20 -20 -20 -20 -20 -8 -2
-20 -20 -20 -20 -20 -20 -20 -20 -20 -15 -20 -0 -1 -6 -14 -20 -20 -20 -20 -20 -20 -20 -20 -20 -20 -4 -2
-20 -20 -20 -20 -20 -20 -20 -20 -20 -20 -19 -17 -18 -20 -17 -20 -20 -20 -5 -20 -20 -20 -5 -3 2 2 -1
-20 -20 -20 -20 -20 -20 -20 -20 -20 -20 -20 -20 -17 2 -17 -17 5 -20 -20 -15 -20 -20 -3 -0 2 -4 -2
-20 -20 -20 -20 -20 -20 -20 -13 -2 -16 -20 -20 -20 -8 -6 1 -19 -20 -20 -20 -3 -12 -5 -13 -20 -6 -10
-20 -20 -9 -20 -20 -20 -9 -5 -6 -14 -15 -20 -15 -14 -7 -10 -17 -20 -7 -2 -9 3 4 6 0 -0 1
-18 -5 -6 -5 -3 -20 -4 -4 -3 -11 -20 -18 -1 8 3 -20 -20 -19 -19 -20 -20 -1 -5 5 -9 -20 0

GFSFLT2_prec_radar_039.txt.gz
Reflectivity
33 14 2 15 23 23 16 11 9 13 -20 -16 -0 7 -19 -20 -20 -20 -20 -12 -9 -14 -14 -20 -20 6 18
12 29 22 34 34 19 7 7 -19 -20 -20 -18 -8 -6 -19 -20 -20 -20 -20 -19 -19 -20 -3 -20 -19 3 -19
22 26 19 18 -0 -18 -17 -17 -20 -20 -12 6 -16 -20 -20 -20 -20 -20 -20 -20 -20 -20 -20 -20 -6 -5 -2
18 27 15 3 8 15 -0 -19 -19 -20 -20 -20 -20 -20 -20 -20 -20 -20 -20 -20 -20 -20 -20 -20 -20 -18 -6
26 11 1 -20 -20 -20 -20 -20 -18 -20 -20 -20 -20 -20 -20 -20 -20 -20 -20 -20 -20 -20 -20 -20 -8 -2 -1
-5 0 -15 -20 -20 -20 -20 -20 -20 -20 -20 -20 -20 -20 -20 -20 -20 -20 -20 -20 -20 -20 -20 -15 -13 -2 -20
-20 -20 -20 -20 -20 -20 -20 -20 -20 -20 -20 -20 -20 -20 -20 -20 -20 -20 -20 -20 -20 -20 -20 -6 -1 3 5
-20 -20 -20 -20 -20 -20 -20 -20 -20 -20 -20 -20 -20 -20 -20 -20 -20 -20 -20 -20 -20 -20 -20 -13 -1 0 4
-20 -20 -20 -20 -20 -20 -20 -20 -20 -20 -20 -20 -20 -20 -20 -20 -20 -20 -20 -20 -20 -20 -20 -16 -20 -15 6
-20 -20 -20 -20 -20 -20 -20 -20 -9 -20 -20 -20 -20 -20 -20 -20 -20 -20 -20 -20 -20 -20 -20 -20 -20 -20 -20
-20 -20 -20 -20 -20 -20 -20 -20 -20 -20 -20 -20 -20 -20 -9 -20 -20 -20 -20 -20 -20 -20 -20 -20 -20 -15 -20
-20 -20 -20 -20 -20 -20 -20 -20 -20 -17 -20 -20 -20 -20 -20 -20 -20 -20 -20 -20 -20 -20 -20 -20 -17 -20 -1
-20 -20 -20 -20 -20 -20 -20 -20 -20 -20 -20 -20 -20 -20 -20 -20 -20 -20 -20 -20 -20 -20 -20 -20 -20 -6 -8
-20 -20 -20 -20 -20 -20 -16 -20 -20 -20 -20 -20 -20 -20 -19 -18 -18 -20 -20 -19 -20 -20 -20 -20 -20 -20 -20
-20 -20 -20 -20 -20 -20 -20 -20 -20 -20 -20 -20 -11 -8 -19 -15 -12 -20 -20 -20 -20 -20 -20 -20 -20 -20 -20
-20 -20 -20 -20 -20 -20 -20 -8 -1 -10 -20 -20 -20 -20 -20 -20 -20 -20 -20 -20 -20 -19 -15 -3 -20 -17 -17
-20 -20 -20 -20 -19 -20 -20 -20 -20 -20 -20 -20 -20 -18 -18 -20 -20 -20 -20 -20 -20 -20 -20 -20 -20 -20 -20

GFSFLT2_prec_radar_042.txt.gz
Reflectivity
42 40 36 29 24 11 12 5 -7 -8 -16 -20 -18 -14 -20 -20 -20 -20 -20 -20 -20 -20 -20 -15 -13 3 -0
34 27 30 34 27 30 5 2 -6 11 -20 -20 -20 -20 -20 -20 -20 -20 -20 -20 -19 -4 -1 -0 -20 -20 -19
29 24 33 25 29 15 3 -16 -20 -20 -20 -20 -20 -20 -20 -20 -20 -20 -20 -20 -20 -7 -6 -5 -19 -20 -20
1 17 16 29 3 -20 -20 -20 -20 -20 -20 -20 -20 -20 -20 -20 -20 -20 -20 -20 -20 -17 -12 -5 -5 -20 -4
4 -17 -20 -20 -20 -20 -20 -20 -19 -20 -20 -20 -20 -20 -20 -20 -20 -20 -20 -20 -20 -20 -10 -6 -7 -4 1
-20 -20 -19 -20 -20 -20 -20 -20 -20 -20 -20 -20 -20 -20 -20 -20 -20 -20 -20 -20 -20 -20 -20 -16 -2 0 -6
-20 -20 -20 -20 -20 -20 -20 -20 -20 -20 -20 -20 -20 -20 -20 -20 -20 -20 -20 -20 -20 -20 -20 -20 -10 -2 -20
-20 -20 -20 -20 -20 -20 -20 -20 -20 -20 -20 -20 -20 -20 -20 -20 -20 -20 -20 -20 -20 -20 -20 -20 -20 -2 5
-20 -20 -20 -20 -20 -20 -20 -20 -20 -20 -20 -20 -20 -20 -20 -20 -20 -20 -20 -20 -20 -20 -20 -20 -20 -2 -9
-20 -20 -20 -20 -20 -20 -20 -20 -20 -19 -20 -20 -20 -20 -20 -20 -20 -20 -20 -20 -20 -20 -20 -20 -20 -20 -20
-20 -20 -20 -20 -20 -20 -20 -20 -20 -20 -20 -20 -20 -20 -8 -20 -20 -20 -20 -20 -20 -20 -20 -20 -20 -16 -16
-20 -20 -20 -20 -20 -20 -20 -20 -20 -20 -20 -14 -20 -20 -20 -20 -20 -20 -20 -20 -20 -20 -20 -20 -20 -20 -5
-20 -20 -20 -20 -20 -20 -20 -20 -20 -20 -20 -20 -20 -20 -20 -20 -20 -20 -20 -20 -20 -20 -20 -20 -20 -20 -20
-20 -20 -20 -20 -20 -20 -20 -20 -20 -20 -20 -20 -20 -20 -17 -17 -16 -20 -20 -20 -20 -20 -20 -20 -20 -20 -20
-20 -20 -20 -20 -20 -20 -20 -20 -12 -20 -20 -20 -20 -20 -10 -10 -9 -20 -20 -20 -20 -20 -20 -20 -20 -20 -20
-20 -20 -20 -20 -20 -20 -20 -20 -20 -20 -20 -20 -20 -20 -20 -20 -3 -20 -20 -20 -20 -20 -20 -20 -20 -20 -20
-20 -20 -20 -20 -17 -20 -20 -20 -20 -20 -20 -20 -20 -18 -18 -20 -20 -20 -20 -20 -20 -20 -20 -20 -20 -20 -20

GFSFLT2_prec_radar_045.txt.gz
Reflectivity
17 20 19 25 34 35 24 29 13 30 32 29 23 -2 2 -11 -20 -20 -20 -20 -20 -20 -20 -20 -20 -20 10
21 25 10 15 9 30 35 16 21 18 17 19 -2 -16 -20 -20 -20 -20 -20 -20 -13 -3 -19 -5 -20 -5 14
24 15 38 40 24 14 4 1 10 13 -11 -20 -20 -20 -20 -20 -20 -20 -20 -5 -4 -2 -20 8 2 4 -20
31 34 6 2 7 2 -9 -9 -13 -9 -20 -20 -20 -20 -20 -20 -20 -20 -20 -20 -20 -20 -20 -20 -20 -9 -0
12 -3 4 1 -16 3 -4 -20 -19 -17 -20 -20 -20 -20 -20 -20 -20 -20 -20 -20 -20 -20 -20 -7 -3 -2 4
-16 -15 -15 -20 -16 -20 -20 -20 -20 -20 -20 -20 -20 -20 -20 -20 -20 -20 -20 -20 -20 -20 -20 -20 -20 -11 1
-15 -3 -4 -20 -17 -20 -20 -20 -20 -20 -20 -20 -20 -20 -20 -20 -20 -20 -20 -20 -20 -20 -20 -19 -3 -3 -1
-20 -20 -20 -20 -20 -20 -20 -20 -20 -20 -20 -20 -20 -20 -20 -20 -20 -20 -20 -20 -20 -20 -20 -20 -20 -20 -13
-20 -20 -20 -20 -20 -20 -20 -20 -20 -20 -20 -20 -20 -20 -20 -20 -20 -20 -20 -20 -20 -20 -20 -20 -20 -20 -20
-20 -20 -20 -20 -20 -20 -20 -20 -20 -20 -20 -20 -20 -20 -20 -20 -20 -20 -20 -20 -20 -20 -20 -20 -20 -20 -20
-20 -20 -20 -20 -20 -20 -20 -20 -20 -20 -20 -20 -20 -20 -20 -20 -20 -20 -20 -20 -20 -20 -20 -20 -20 -20 -11
-20 -20 -20 -20 -20 -20 -20 -20 -20 -20 -20 -20 -20 -20 -20 -20 -20 -20 -20 -20 -20 -20 -20 -20 -20 -20 -20
-20 -20 -20 -20 -20 -20 -20 -20 -20 -20 -20 -20 -20 -20 -19 -20 -20 -20 -20 -20 -20 -20 -20 -20 -20 -20 -20
-20 -20 -20 -20 -20 -20 -20 -20 -20 -20 -20 -17 -18 -19 -19 -19 -18 -20 -20 -20 -20 -20 -20 -20 -20 -20 -20
-20 -20 -20 -20 -20 -20 -20 -20 -20 -20 -20 -20 -20 -20 -20 -20 -16 -20 -20 -20 -20 -20 -20 -20 -20 -20 -20
-20 -20 -20 -20 -20 -20 -20 -20 -20 -20 -20 -20 -20 -16 -20 -20 -2 -20 -20 -20 -20 -20 -20 -20 -20 -20 -20
-20 -20 -20 -20 -19 -20 -20 -20 -20 -20 -20 -20 -20 -20 -20 -20 -20 -20 -20 -20 -20 -20 -20 -20 -20 -20 -20

GFSFLT2_prec_radar_048.txt.gz
Reflectivity
-11 10 26 21 22 21 25 28 31 28 34 29 24 27 28 16 5 3 -5 -5 -20 -19 -20 -20 -20 -19 -19
20 24 36 25 28 14 32 28 29 24 31 26 9 21 11 -11 4 -12 -20 -20 -20 -20 -20 -20 -20 -20 2
24 5 29 28 33 34 25 35 20 23 23 12 3 -3 -13 -20 -20 -20 -20 -20 -20 -5 -14 8 5 11 12
-4 13 23 23 33 27 25 22 21 11 7 -3 -20 -20 -20 -20 -20 -20 -20 -20 -20 -20 -20 -20 -20 -20 -19
22 14 2 4 5 19 1 7 9 -16 -20 -20 -20 -20 -20 -20 -20 -20 -20 -20 -20 -20 -20 -6 1 -2 9
-11 -20 -13 -13 -14 -6 -14 -20 -20 -20 -20 -20 -20 -20 -20 -20 -20 -20 -20 -20 -20 -20 -20 -20 -20 -20 -2
-20 -20 -20 -20 -20 -20 -20 -20 -20 -20 -20 -20 -20 -20 -20 -20 -20 -20 -20 -20 -20 -20 -20 -20 -16 -20 -8
-20 -20 -20 -20 -20 -20 -20 -20 -20 -20 -20 -20 -20 -20 -20 -20 -20 -20 -20 -20 -20 -20 -20 -20 -20 -20 -20
-20 -20 -20 -20 -20 -20 -20 -20 -20 -20 -20 -20 -20 -20 -20 -20 -20 -20 -20 -20 -20 -20 -20 -20 -20 -20 -20
-20 -20 -20 -20 -20 -20 -20 -20 -20 -20 -20 -20 -20 -20 -20 -20 -20 -20 -20 -20 -20 -20 -20 -20 -20 -20 -20
-20 -20 -20 -20 -20 -20 -20 -20 -20 -20 -20 -20 -20 -20 -10 -20 -20 -20 -20 -20 -20 -20 -20 -20 -20 -20 -20
-20 -20 -20 -20 -20 -20 -20 -20 -20 -20 -20 -20 -20 -20 -20 -20 -20 -20 -20 -20 -20 -20 -20 -20 -20 -20 -20
-20 -20 -20 -20 -20 -20 -20 -20 -20 -20 -20 -20 -20 -20 -19 -20 -20 -20 -19 -20 -20 -20 -20 -20 -20 -20 -20
-20 -20 -20 -20 -20 -20 -20 -20 -20 -20 -20 -20 -9 -18 -18 -19 -20 -20 -20 -20 -20 -20 -20 -20 -20 -20 -20
-20 -20 -20 -20 -20 -20 -20 -20 -20 -20 -20 -20 -20 -20 -18 -20 -18 -20 -20 -20 -20 -20 -20 -20 -20 -20 -20
-20 -20 -20 -20 -20 -20 -20 -20 -20 -20 -20 -20 -20 -20 -20 -20 -20 -20 -20 -20 -20 -20 -20 -20 -20 -20 -20
-20 -20 -20 -20 -20 -20 -20 -20 -20 -20 -20 -20 -20 -20 -20 -20 -20 -20 -20 -20 -20 -20 -20 -20 -20 -20 -20

GFSFLT2_prec_radar_051.txt.gz
Reflectivity
-16 -13 -20 -20 7 -3 16 27 31 29 26 25 25 18 28 30 23 25 23 18 9 7 7 4 -3 -12 -11
-16 -20 -6 -3 19 18 37 28 23 30 22 24 32 26 17 22 12 6 -3 1 -4 -20 -19 -19 -17 -1 -20
-19 -20 -3 -5 15 22 16 30 28 33 27 27 18 9 7 9 13 11 -2 -20 -20 -19 -3 -7 -20 -17 -6
-20 21 -5 -5 4 -11 -1 15 11 2 8 5 -11 -12 -13 -10 -12 -20 -20 -20 -20 -20 -20 -20 -20 -20 -20
-20 -20 -9 -16 -20 -6 -8 -8 -4 1 -18 -20 -20 -20 -20 -20 -20 -20 -20 -20 -20 -20 -20 -20 -20 -10 -19
-20 -20 -20 -20 -20 -20 -20 -20 -20 -20 -20 -20 -20 -20 -20 -20 -20 -20 -20 -20 -20 -20 -7 0 10 9 2
-20 -20 -20 -20 -20 -20 -20 -20 -20 -20 -20 -20 -20 -20 -20 -20 -20 -20 -20 -20 -20 -20 -6 -1 3 11 -0
-20 -20 -20 -20 -20 -20 -20 -20 -20 -20 -20 -20 -20 -20 -20 -20 -20 -20 -20 -20 -20 -20 -12 -1 3 -2 -20
-20 -20 -20 -20 -20 -20 -20 -20 -20 -20 -20 -20 -20 -20 -20 -20 -20 -20 -20 -20 -20 -20 -20 -20 -20 -20 -20
-20 -20 -20 -20 -20 -20 -20 -20 -20 -20 -20 -20 -20 -20 -20 -20 -20 -20 -20 -20 -20 -20 -20 -20 -20 -20 -20
-20 -20 -20 -20 -20 -20 -20 -20 -20 -20 -20 -20 -20 -20 -20 -20 -20 -20 -20 -20 -20 -20 -20 -20 -20 -20 -20
-20 -20 -20 -20 -20 -20 -20 -20 -20 -20 -20 -20 -20 -20 -20 -20 -20 -20 -20 -20 -20 -20 -20 -20 -20 -20 -20
-20 -20 -20 -20 -20 -20 -20 -20 -20 -20 -20 -20 -20 -20 -18 -20 -20 -20 -20 -20 -20 -20 -20 -20 -20 -20 -20
-20 -20 -20 -20 -20 -20 -20 -20 -20 -20 -20 -20 -20 -20 -19 -20 -19 -20 -20 -20 -20 -20 -20 -20 -20 -20 -20
-20 -20 -20 -20 -20 -20 -20 -20 -13 -20 -20 -20 -20 -20 -20 -20 -20 -20 -20 -20 -20 -20 -20 -20 -20 -20 -20
-20 -20 -20 -20 -20 -20 -19 -20 -20 -20 -20 -20 -20 -20 -20 -20 -20 -20 -20 -20 -20 -20 -20 -20 -20 -20 -20
-20 -20 -20 -20 -19 -20 -20 -20 -20 -20 -20 -20 -20 -20 -20 -20 -20 -20 -20 -20 -20 -20 -20 -20 -20 -20 -20

GFSFLT2_prec_radar_054.txt.gz
Reflectivity
-20 -20 -20 -20 -20 -20 -20 -20 -2 26 28 24 23 33 19 29 29 31 30 30 23 17 19 21 18 23 25
-20 -20 -20 -13 -20 -20 -20 -11 -8 15 25 24 23 15 26 22 25 21 26 28 29 23 14 -1 -6 -8 -12
-20 -20 -20 -20 -20 -20 -16 -20 -19 11 1 8 10 20 21 22 26 17 21 24 25 14 -10 -19 -18 -6 -19
-20 -20 -20 -20 -20 -20 -20 -20 -20 -12 8 13 14 19 10 14 2 -3 7 -8 -13 -20 -20 -20 -20 -20 -20
-20 -20 -20 -20 -20 -20 -20 -20 -20 -20 -20 -20 -20 -19 -20 -20 -20 -20 -20 -20 -20 -20 -20 -20 -20 -20 -20
-20 -20 -20 -20 -20 -20 -20 -20 -20 -20 -20 -20 -20 -20 -20 -20 -20 -20 -20 -20 -20 -20 -20 -20 -20 -7 10
-20 -20 -20 -20 -20 -20 -20 -20 -20 -20 -20 -20 -20 -20 -20 -20 -20 -20 -20 -20 -20 -20 -3 7 11 12 10
-20 -20 -20 -20 -20 -20 -20 -20 -20 -20 -20 -20 -20 -20 -20 -20 -20 -20 -20 -20 -20 -5 -3 12 6 6 10
-20 -20 -20 -20 -20 -20 -20 -20 -20 -20 -20 -20 -20 -20 -20 -20 -20 -20 -20 -20 -20 -20 -20 -15 -16 -16 -20
-20 -20 -20 -20 -20 -20 -20 -20 -20 -20 -20 -20 -20 -20 -20 -20 -20 -20 -20 -20 -20 -20 -20 -20 -20 -20 -20
-20 -20 -20 -20 -20 -20 -20 -20 -20 -20 -20 -20 -20 -20 -20 -20 -20 -20 -20 -20 -20 -20 -20 -20 -20 -20 -20
-20 -20 -20 -20 -20 -20 -20 -20 -20 -20 -20 -20 -20 -20 -20 -20 -20 -20 -20 -20 -20 -20 -20 -20 -20 -20 -20
-20 -20 -20 -20 -20 -20 -20 -20 -20 -20 -20 -20 -20 -20 -20 -20 -20 -20 -20 -20 -20 -20 -20 -20 -20 -20 -20
-20 -20 -20 -20 -20 -20 -20 -20 -20 -20 -20 -20 -20 -20 -20 -20 -19 -20 -20 -20 -20 -20 -20 -20 -20 -20 -20
-20 -20 -20 -20 -20 -20 -20 -20 -20 -20 -20 -20 -20 -20 -20 -20 -20 -20 -20 -20 -20 -20 -20 -20 -20 -20 -20
-20 -20 -20 -20 -20 -20 -13 -20 -20 -20 -20 -20 -20 -20 -20 -20 -20 -20 -20 -20 -20 -20 -20 -20 -20 -20 -20
-20 -20 -20 -20 -20 -20 -20 -20 -20 -20 -20 -20 -20 -20 -20 -20 -20 -20 -20 -20 -20 -20 -20 -20 -20 -20 -20

GFSFLT2_prec_radar_057.txt.gz
Reflectivity
-20 -20 -20 -20 -6 -13 -20 -20 -12 -17 18 15 21 17 21 5 15 19 19 7 13 24 25 29 25 19 18
-20 -20 -20 -20 -20 -20 -20 -20 -20 -17 9 16 18 12 13 12 -19 -18 -11 2 13 19 11 24 26 21 12
-20 -20 -20 -20 -17 -20 -20 -20 -20 -15 -20 -20 -20 -20 -20 -8 10 10 16 18 15 9 13 13 16 18 18
-20 -20 -18 -20 -16 -17 -20 -20 -20 -20 -0 -16 -14 -11 -13 -15 -5 -6 -12 -17 -14 5 1 -13 -16 -18 -16
-20 -20 -20 -20 -20 -20 -20 -20 -20 -20 -20 -20 -20 -20 -20 -20 -20 -20 -20 -20 -20 -20 -20 -20 -20 -20 -20
-20 -20 -20 -20 -20 -20 -20 -20 -20 -20 -20 -20 -20 -20 -20 -20 -20 -20 -20 -20 -20 -20 -20 -20 -20 -20 -20
-20 -20 -20 -20 -20 -20 -20 -20 -20 -20 -20 -20 -20 -20 -20 -20 -20 -20 -20 -20 -20 -20 -20 -17 -20 -8 7
-20 -20 -20 -20 -20 -20 -20 -20 -20 -20 -20 -20 -20 -20 -20 -20 -20 -20 -20 -20 -20 -20 -11 8 12 10 10
-20 -20 -20 -20 -20 -20 -20 -20 -20 -20 -20 -20 -20 -20 -20 -20 -20 -20 -20 -20 -20 -13 9 8 7 2 -14
-20 -20 -20 -20 -20 -20 -20 -20 -20 -20 -20 -20 -20 -20 -20 -20 -20 -20 -20 -20 -20 -11 -20 -20 -20 -17 -20
-20 -20 -20 -20 -20 -20 -20 -20 -20 -20 -20 -20 -20 -20 -20 -20 -20 -20 -20 -20 -20 -20 -20 -20 -20 -20 -20
-20 -20 -20 -20 -20 -20 -20 -20 -20 -20 -20 -20 -20 -20 -20 -20 -20 -20 -20 -20 -20 -20 -20 -20 -20 -20 -20
-20 -20 -20 -20 -20 -20 -20 -20 -20 -20 -20 -20 -20 -20 -20 -20 -20 -20 -20 -20 -20 -20 -20 -20 -20 -20 -20
-20 -20 -20 -20 -20 -20 -20 -20 -20 -20 -20 -20 -20 -20 -20 -9 -19 -20 -20 -20 -20 -20 -20 -20 -20 -20 -20
-20 -20 -20 -20 -20 -20 -20 -20 -20 -20 -20 -20 -20 -20 -20 -20 -20 -20 -20 -20 -20 -20 -20 -20 -20 -20 -20
-20 -20 -20 -20 -20 -20 -20 -16 -20 -20 -20 -20 -20 -20 -20 -20 -20 -20 -20 -20 -20 -20 -20 -17 -20 -20 -20
-20 -20 -20 -20 -20 -20 -20 -20 -20 -20 -20 -20 -20 -20 -20 -20 -20 -20 -20 -20 -20 -20 -20 -20 -20 -20 -20

GFSFLT2_prec_radar_060.txt.gz
Reflectivity
-8 -20 -20 -20 -20 -20 -9 -20 -20 1 -8 12 4 5 18 -0 18 20 17 22 18 17 12 17 8 15 15
-20 -20 -20 -20 -20 -20 -20 -20 -20 -8 4 -0 3 -20 -17 -10 -20 -19 -20 -20 -20 -20 -9 -20 0 15 10
-9 -20 -20 -20 -19 -20 -20 -20 -20 -20 -20 -20 -4 -12 0 -9 -9 -20 -20 -20 -20 -20 -20 -20 -14 7 8
-20 -20 -20 -20 -20 -20 -20 -20 -20 -20 -20 -20 -20 -20 -20 -20 -20 -18 -13 -20 -20 -20 -20 -3 -20 -20 -20
-20 -20 -20 -20 -20 -20 -20 -20 -20 -20 -20 -20 -20 -20 -20 -20 -20 -20 -20 -20 -20 -20 -17 -20 -20 -20 -20
-20 -20 -20 -20 -20 -20 -20 -20 -20 -20 -20 -20 -20 -20 -20 -20 -20 -20 -20 -20 -20 -20 -20 -20 -20 -20 -20
-20 -20 -20 -20 -20 -20 -20 -20 -20 -20 -20 -20 -20 -20 -20 -20 -20 -20 -20 -20 -20 -20 -20 -20 -20 -20 -20
-20 -20 -20 -20 -20 -20 -20 -20 -20 -20 -20 -20 -20 -20 -20 -20 -20 -20 -20 -20 -20 -20 -20 -5 -13 7 3
-20 -20 -20 -20 -20 -20 -20 -20 -20 -20 -20 -20 -20 -20 -20 -20 -20 -20 -20 -20 -20 -20 -18 1 10 9 7
-20 -20 -20 -20 -20 -20 -20 -20 -20 -20 -20 -20 -20 -20 -20 -20 -20 -20 -20 -20 -20 -20 -20 -16 8 -17 -20
-20 -20 -20 -20 -20 -20 -20 -20 -20 -20 -20 -20 -14 -20 -20 -20 -20 -20 -20 -20 -20 -20 -20 -20 -20 -20 -20
-20 -20 -20 -20 -20 -20 -20 -20 -20 -20 -20 -20 -6 -7 -15 -15 -20 -20 -20 -20 -20 -20 -20 -20 -20 -20 -20
-20 -20 -20 -20 -20 -20 -20 -20 -20 -20 -20 -20 -13 -20 -20 -20 -20 -20 -20 -20 -20 -20 -20 -20 -20 -20 -20
-20 -20 -20 -20 -20 -20 -20 -20 -17 -20 -20 -20 -11 -20 -20 -20 -7 -20 -20 -18 -20 -20 -20 -20 -20 -20 -20
-20 -20 -20 -20 -20 -20 -20 -20 -20 -20 -20 -20 -20 -20 -20 -20 -20 -20 -20 -20 -20 -20 -13 -20 -20 -20 -20
-20 -20 -20 -20 -20 -20 -20 -20 -20 -20 -20 -20 -20 -20 -20 -20 -20 -20 -20 -20 -20 -20 -9 -8 -20 -20 -20
-20 -20 -20 -20 -20 -20 -20 -20 -20 -20 -20 -20 -20 -20 -20 -20 -20 -20 -20 -20 -13 -5 -19 -3 -1 -20 -20

GFSFLT2_prec_radar_063.txt.gz
Reflectivity
-20 -20 -20 -20 -20 -20 -12 -16 -4 -4 0 3 9 14 16 16 17 -6 10 9 18 22 24 24 24 10 -3
-20 -20 -20 -20 -20 -20 -20 -20 -20 -20 -20 -20 -16 -1 5 11 7 2 6 12 -2 -18 -20 -9 -13 -3 -19
-20 -20 -20 -20 -20 -20 -20 -20 -20 -20 -20 -20 -7 -20 -14 5 2 11 6 -3 -20 -20 -20 -20 -20 -20 8
-20 -20 -20 -20 -20 -20 -20 -20 -20 -20 -20 -20 -20 -20 -20 -20 -20 -20 -20 -20 -12 -14 -20 -20 -18 5 9
-14 -20 -20 -20 -20 -20 -20 -20 -20 -20 -20 -20 -20 -20 -20 -20 -20 -20 -20 -20 -20 -17 11 9 0 -8 4
8 -20 -20 -20 -20 -20 -20 -20 -20 -20 -20 -20 -20 -20 -20 -20 -20 -20 -20 -20 -20 -20 -20 -20 -20 -20 -20
-20 -20 -20 -20 -20 -20 -20 -20 -20 -20 -20 -20 -20 -20 -20 -20 -20 -20 -20 -20 -20 -20 -20 -20 -20 -20 -20
-20 -20 -20 -20 -20 -20 -20 -20 -20 -20 -20 -20 -20 -20 -20 -20 -20 -20 -20 -20 -20 -20 -20 -20 -20 -20 -20
-20 -20 -20 -20 -20 -20 -20 -20 -20 -20 -20 -20 -20 -20 -20 -20 -20 -20 -20 -20 -20 -20 -20 -20 -20 -8 -16
-20 -20 -20 -20 -20 -20 -20 -20 -20 -20 -20 -20 -20 -20 -20 -20 -20 -20 -20 -20 -20 -20 -20 -20 -20 -20 -20
-20 -20 -20 -20 -20 -20 -20 -20 -20 -20 -20 -20 -20 -20 -20 -20 -20 -20 -20 -20 -20 -20 -20 -20 -20 -16 -20
-20 -20 -20 -20 -20 -20 -20 -20 -20 -20 -20 -20 -20 -20 -19 -20 -20 -20 -20 -20 -20 -20 -20 -20 -20 -20 -20
-20 -20 -20 -20 -20 -20 -20 -20 -20 -20 -20 -20 -20 -19 -4 -20 -20 -20 -20 -20 -20 -20 -20 -20 -20 -20 -20
-20 -20 -20 -20 -20 -20 -20 -20 -20 -20 -20 -20 -20 -20 -20 -20 -20 -20 -20 -20 -20 -20 -20 -20 -20 -20 -20
-20 -20 -20 -20 -20 -20 -20 -20 -20 -20 -20 -20 -20 -20 -20 -20 -20 -20 -20 -20 -20 -20 -20 -20 -20 -20 -20
-20 -20 -20 -20 -20 -20 -20 -20 -20 -20 -20 -20 -20 -19 -20 -20 -20 -20 -20 -20 -20 -20 -20 -20 -20 -20 -20
-20 -20 -20 -20 -20 -20 -20 -20 -20 -20 -20 -20 -20 -13 -18 -20 -20 -20 -20 -20 -20 -20 -20 -20 -20 -20 -20

GFSFLT2_prec_radar_069.txt.gz
Reflectivity
-11 -12 -20 -18 -19 -19 -14 -20 -17 11 7 13 5 3 -2 6 12 4 10 -6 -4 1 7 9 5 7 5
-20 -20 -20 -20 -20 -20 -20 -20 -20 -20 -19 10 -0 2 -20 5 11 -6 8 15 -4 5 3 12 15 11 14
-20 -20 -20 -17 -20 -20 -20 -20 -20 -20 -20 -20 -20 -20 -17 -20 -17 -4 -2 5 9 -16 -7 -7 4 4 0
-20 -20 -20 -20 -20 -20 -20 -20 -20 -20 -20 -20 -20 -20 -20 -20 -20 -20 -20 -13 -8 -3 -20 -20 -20 -20 -20
-20 -20 -20 -20 -20 -20 -20 -20 -20 -20 -20 -20 -20 -20 -20 -20 -20 -20 -20 -20 -20 -20 -20 -20 -20 -20 -20
-20 -20 -20 -20 -20 -20 -20 -20 -20 -20 -20 -20 -20 -20 -20 -20 -20 -20 -20 -20 -20 -20 -20 -20 -20 -20 -20
-20 -20 -20 -20 -20 -20 -20 -20 -20 -20 -20 -20 -20 -20 -20 -20 -20 -20 -20 -20 -20 -20 -20 -20 -20 -20 -20
-20 -20 -20 -20 -20 -20 -20 -20 -20 -20 -20 -20 -20 -20 -20 -20 -20 -20 -20 -20 -20 -20 -20 -20 -20 -20 -20
-20 -20 -20 -20 -20 -20 -20 -20 -20 -20 -20 -20 -20 -20 -20 -20 -20 -20 -20 -20 -20 -20 -20 -20 -20 -20 -20
-20 -20 -20 -20 -20 -20 -20 -20 -20 -20 -20 -20 -20 -20 -20 -20 -20 -20 -20 -20 -20 -20 -20 -20 -20 -20 -20
-20 -20 -20 -20 -20 -20 -20 -20 -20 -20 -20 -20 -20 -20 -20 -20 -20 -20 -20 -20 -20 -20 -20 -20 -20 -20 -20
-20 -20 -20 -20 -20 -20 -20 -20 -20 -20 -20 -20 -20 -20 -20 -20 -20 -20 -20 -20 -20 -20 -20 -20 -20 -20 -20
-20 -20 -20 -20 -20 -20 -20 -20 -20 -20 -20 -20 -20 -20 -20 -20 -20 -20 -20 -20 -20 -20 -20 -20 -20 -20 -20
-20 -20 -20 -20 -20 -20 -20 -20 -20 -20 -20 -20 -20 -20 -20 -20 -20 -20 -20 -20 -20 -20 -20 -20 -20 -20 -20
-8 -9 -20 -20 -20 -20 -20 -20 -20 -20 -20 -20 -20 -20 -20 -20 -20 -20 -20 -20 -20 -20 -20 -20 -20 -20 -20
-15 -20 -20 -20 -20 -20 -20 -20 -20 -20 -20 -20 -20 -20 -20 -20 -20 -20 -20 -20 -20 -20 -20 -20 -20 -20 -20
-20 -20 -20 -20 -20 -20 -20 -20 -20 -20 -20 -20 -20 -20 -20 -20 -20 -20 -20 -20 -20 -20 -20 -20 -20 -20 -20

GFSFLT2_prec_radar_072.txt.gz
Reflectivity
-7 16 20 14 -8 -17 -4 -20 -12 4 12 14 6 6 13 13 12 11 -12 -20 -17 11 13 12 9 10 2
16 -13 -20 -20 -20 -20 -20 -20 -20 -20 -2 6 11 14 -3 10 15 14 -2 -5 3 -8 -20 -20 -20 -10 4
-20 -20 -20 -4 -20 -20 -20 -20 -20 -20 -20 -20 -20 -14 -2 9 -18 3 10 11 5 -13 -20 -14 11 4 0
-20 -20 -20 -20 -20 -20 -20 -20 -20 -20 -20 -20 -20 -20 -20 -20 -20 -20 -20 -20 -18 -19 -20 -20 -20 -20 -20
-20 -20 -20 -20 -20 -20 -20 -20 -20 -20 -20 -20 -20 -20 -20 -20 -20 -20 -20 -20 -20 -20 -20 -20 -20 -20 -20
-20 -20 -20 -20 -20 -20 -20 -20 -20 -20 -20 -20 -20 -20 -20 -20 -20 -20 -20 -20 -20 -20 -20 -20 -20 -20 -20
-20 -20 -20 -20 -20 -20 -20 -20 -20 -20 -20 -20 -20 -20 -20 -20 -20 -20 -20 -20 -20 -20 -20 -20 -20 -20 -20
-20 -20 -20 -20 -20 -20 -20 -20 -20 -20 -20 -20 -20 -20 -20 -20 -20 -20 -20 -20 -20 -20 -20 -20 -20 -20 -20
-20 -20 -20 -20 -20 -20 -20 -20 -20 -20 -20 -20 -20 -20 -20 -20 -20 -20 -20 -20 -20 -20 -20 -20 -20 -20 -20
-20 -20 -20 -20 -20 -20 -20 -20 -20 -20 -20 -20 -20 -20 -20 -20 -20 -20 -20 -20 -20 -20 -20 -20 -20 -20 -20
-20 -20 -20 -20 -20 -20 -20 -20 -20 -20 -20 -20 -20 -20 -20 -20 -20 -20 -20 -20 -20 -20 -20 -20 -20 -20 -20
-20 -20 -20 -20 -20 -20 -19 -4 -20 -20 -20 -20 -20 -20 -20 -20 -20 -20 -20 -20 -20 -20 -20 -20 -20 -20 -20
-20 -20 -20 -20 -20 -20 -20 -20 -20 -20 -20 -20 -20 -20 -20 -20 -20 -20 -20 -20 -20 -20 -20 -20 -20 -20 -20
-20 -20 -18 -20 -20 -19 -20 -20 -20 -20 -20 -20 -20 -20 -20 -20 -20 -20 -20 -20 -20 -20 -20 -20 -20 -20 -20
-20 -11 4 2 -11 -17 -20 -20 -20 -20 -20 -20 -20 -20 -20 -20 -20 -20 -20 -20 -20 -20 -20 -20 -20 -20 -20
-1 -11 -20 -20 -11 -19 -20 -20 -20 -20 -20 -20 -20 -20 -20 -20 -20 -20 -20 -20 -20 -20 -20 -20 -20 -20 -20
-20 -20 -20 -20 -20 -20 -20 -20 -20 -20 -20 -20 -20 -20 -20 -20 -20 -20 -20 -20 -20 -20 -20 -20 -20 -20 -20

GFSFLT2_prec_radar_075.txt.gz
Reflectivity
-17 3 -12 10 6 -0 9 -20 -20 -19 -5 -12 5 -20 -15 -16 -0 13 14 -6 11 18 19 16 17 14 15
-0 17 9 -2 8 -19 -20 -20 -20 2 9 8 -8 -11 -20 -20 9 13 2 -18 -11 8 3 12 18 16 15
-20 12 3 10 -16 -20 -13 -20 -20 -20 -20 -20 -20 -8 -2 -20 -20 -11 9 -14 13 15 -3 -14 -16 -20 -2
3 -11 5 -4 -20 -20 -20 -20 -20 -20 -20 -20 -20 -20 -20 -20 -20 -20 -20 -11 -8 1 -8 -12 -9 13 6
-7 -4 -20 -20 -20 -20 -20 -20 -20 -20 -20 -20 -20 -20 -20 -20 -20 -20 -20 -20 -20 -20 -20 -20 -20 -20 -20
13 -4 -20 -20 -20 -20 -20 -20 -20 -20 -20 -20 -20 -20 -20 -20 -20 -20 -20 -20 -20 -20 -20 -20 -20 -20 -20
-20 -20 -20 -20 -20 -20 -20 -20 -20 -20 -20 -20 -20 -20 -20 -20 -20 -20 -20 -20 -20 -20 -20 -20 -20 -20 -20
-17 -4 -20 -20 -20 -20 -20 -20 -20 -20 -20 -20 -20 -20 -20 -20 -20 -20 -20 -20 -20 -20 -20 -20 -20 -20 -20
-20 -13 -8 -18 -20 -20 -20 -20 -20 -20 -20 -20 -20 -20 -20 -20 -20 -20 -20 -20 -20 -20 -20 -20 -20 -20 -20
8 2 0 -12 -20 -20 -20 -20 -20 -20 -20 -20 -20 -20 -20 -20 -20 -20 -20 -20 -20 -20 -20 -20 -20 -20 -20
-16 -17 -20 -20 -20 -20 -20 -20 -20 -20 -20 -20 -17 -19 -20 -20 -20 -20 -20 -20 -20 -20 -20 -20 -20 -20 -20
-20 -20 -20 -20 -20 -20 -20 -20 -20 -20 -20 -16 -16 -20 -20 -20 -20 -20 -20 -20 -20 -20 -20 -20 -20 -20 -20
-19 -20 -20 -20 -20 -20 -20 -20 -20 -16 -20 -20 -20 -20 -20 -20 -20 -20 -20 -20 -20 -20 -20 -20 -20 -20 -20
-20 -20 -20 -20 -3 10 10 12 -0 -20 -20 -20 -20 -20 -20 -20 -20 -20 -20 -20 -20 -20 -20 -20 -20 -20 -20
-9 -4 -5 -15 -20 -20 -20 -20 -20 -20 -20 -20 -20 -20 -20 -20 -20 -20 -20 -20 -20 -20 -20 -20 -20 -20 -20
-20 -20 -20 -20 -20 -20 -20 -20 -20 -20 -20 -20 -5 0 -19 -18 -14 -13 -20 -20 -20 -20 -20 -20 -20 -20 -20
-20 -20 -20 -20 -20 -20 -20 -20 -20 -20 -20 -20 -20 -20 -20 -14 7 -10 -14 -20 -20 -20 -20 -20 -20 -20 -20

GFSFLT2_prec_radar_078.txt.gz
Reflectivity
-20 1 -15 -20 2 -11 10 3 -1 8 -19 -14 -17 10 10 -7 9 10 13 11 9 5 -1 3 10 6 26
-1 13 15 -5 4 14 -19 7 -15 -10 1 5 -20 12 13 -10 11 10 0 11 -9 13 14 0 13 3 5
-20 -20 -7 1 6 6 -20 -20 -20 -20 -20 -20 -17 -2 -4 -20 -20 -8 9 -13 -12 -5 -15 11 4 -8 -8
8 9 -17 1 3 -20 -15 -20 -20 -20 -20 -20 -20 -20 -20 -20 -20 -20 -20 -20 6 -20 14 -10 -13 3 -7
13 10 -8 -13 3 -1 -20 -20 -20 -20 -20 -20 -20 -15 -20 -20 -20 -20 -20 -20 -20 -20 -20 -20 -20 -17 -16
3 10 -13 7 10 1 -20 -20 -20 -20 -20 -20 -20 -20 -20 -20 -20 -20 -20 -20 -20 -20 -20 -20 -20 -20 -20
7 -4 -18 -20 -20 -11 -19 -20 -20 -20 -20 -20 -20 -20 -20 -20 -20 -20 -20 -20 -20 -20 -20 -20 -20 -20 -20
-20 -20 -20 -20 -6 -8 -20 -20 -20 -20 -20 -20 -20 -20 -20 -20 -20 -20 -20 -20 -20 -20 -20 -20 -20 -20 -20
-20 -20 -20 -20 -2 5 -19 -20 -18 -20 -20 -20 -20 -20 -20 -20 -20 -20 -20 -20 -20 -20 -20 -20 -20 -20 -20
9 -12 -19 -3 -12 -20 -20 -4 1 -20 -20 -20 -20 -20 -20 -20 -20 -20 -20 -20 -20 -20 -20 -20 -20 -20 -20
-20 -20 -20 -5 -18 -20 -0 8 -20 -20 -20 -20 -20 -20 -20 -8 2 6 -20 -20 -20 -20 -20 -20 -20 -20 -20
-20 -20 -20 -20 -20 -20 -20 -20 -20 -20 -20 -20 -20 -16 -10 -20 -20 -20 -20 -20 -20 -20 -20 -20 -20 -20 -20
-20 -20 -20 -20 -20 -20 -20 -20 -8 -6 7 9 8 -7 -20 -20 -20 -20 -20 -20 -20 -20 -20 -20 -20 -20 -20
-20 -20 -20 -20 -20 -20 -20 -20 -20 -20 -20 -20 -20 -20 -20 -20 -20 -20 -20 -20 -20 -20 -20 -20 -20 -20 -20
-20 -20 -20 -20 -20 -20 -20 -20 -20 -20 -20 -20 -20 -20 -20 -20 -20 -15 -20 -20 -20 -20 -20 -20 -20 -20 -20
-20 -20 -20 -20 -20 -20 -20 -20 -20 -20 -20 -20 -20 -20 -20 -20 -20 -20 -20 -20 -20 -20 -20 -20 -20 -20 -20
-20 -20 -20 -20 -20 -20 -20 -20 -20 -20 -20 -20 -20 -20 -20 -20 -19 -20 -20 -20 -20 -20 -20 -20 -20 -20 -20

GFSFLT2_prec_radar_081.txt.gz
Reflectivity
-15 -20 -20 -20 -7 -20 -15 7 7 17 -1 -7 -5 8 10 14 -9 -18 4 6 10 15 13 11 10 -10 2
-20 -19 -20 -20 -20 -2 -14 6 10 7 12 -18 -5 7 5 1 -20 -3 2 10 1 10 11 12 18 10 19
-20 -20 -20 -20 -20 -19 -2 -3 12 13 -8 -19 -0 10 8 -19 -20 -20 -8 -20 -11 -3 4 12 14 6 9
-20 -12 -20 -20 -20 -20 -7 7 -7 -18 -20 -20 -20 -20 -18 -20 -20 -20 -20 -20 -20 -1 -20 6 10 9 10
-15 6 -18 -8 -10 -20 -0 -1 -14 -20 -20 -20 -20 -20 -20 -20 -20 -20 -20 -20 -20 -20 -20 6 -11 -2 -3
-17 -20 -20 -20 -18 12 -0 1 -20 -20 -20 -20 -20 -20 -20 -20 -18 -20 -20 -20 -20 -20 -20 -20 -20 -20 -20
-20 -20 -20 -16 -20 -20 -11 -20 -18 10 6 -20 -16 -19 -20 -20 -20 -20 -20 -20 -20 -20 -20 -20 -20 -20 -20
-20 -20 -20 -20 -20 -20 -20 -20 9 1 -20 -10 0 -17 -20 -20 -20 -20 -20 -20 -20 -20 -20 -20 -20 -20 -20
-20 -20 -20 -20 -2 -20 -20 -14 18 15 -9 -20 -20 -20 -20 -20 -20 -20 -20 -20 -20 -20 -20 -20 -19 -20 -20
-20 -20 -20 -20 -20 -20 -15 -20 -20 -20 -20 -12 -20 -20 -20 -20 -20 -20 -20 -19 -11 -2 -13 -19 -20 -20 -20
-20 -20 -20 -20 -20 -20 -20 -20 -20 -19 -15 -19 -20 -20 -20 -20 -20 -20 -1 -8 -12 -18 -19 -20 -20 -20 -20
-20 -20 -20 -20 -20 -20 -20 -20 -20 -16 -11 -20 -20 -10 2 2 10 10 -20 -20 -20 -20 -20 -20 -20 -20 -20
-20 -20 -20 -20 -20 -20 -20 -20 -20 -20 -20 -20 -20 -20 -20 -20 -20 -20 -20 -20 -20 -20 -20 -20 -20 -20 -20
-20 -20 -20 -20 -20 -20 -20 -20 -20 -20 -20 -20 -20 -20 -20 -20 -20 -20 -20 -20 -20 -20 -20 -20 -20 -20 -20
-20 -20 -20 -20 -20 -20 -20 -20 -20 -20 -20 -20 -20 -20 -20 -20 -20 -20 -20 -20 -20 -20 -20 -20 -20 -20 -20
-20 -20 -20 -20 -20 -20 -20 -20 -20 -20 -20 -20 -20 -20 -20 -20 -20 -20 -20 -20 -20 -20 -20 -20 -20 -20 -20
-20 -20 -20 -20 -20 -20 -20 -20 -20 -20 -20 -20 -20 -20 -20 -20 -20 -20 -20 -20 -20 -20 -20 -20 -20 -20 -20

GFSFLT2_prec_radar_084.txt.gz
Reflectivity
-20 -20 -20 -20 -20 -20 -2 -20 -9 4 8 -0 6 -20 -20 -6 7 9 -20 -20 -20 -16 -3 4 16 -15 -20
-20 -20 -20 -20 -20 -19 -19 -16 -12 15 1 11 -12 -19 -20 6 10 -19 -20 -17 8 8 8 8 4 12 15
-5 -20 -20 -20 -20 -20 -20 -20 -9 19 9 -20 -20 -20 2 -7 -20 -20 -20 -11 2 -12 -17 12 21 15 18
1 -20 -20 -20 -20 -20 -20 -20 -20 -20 13 4 -20 -20 -20 -20 -20 -20 -20 -20 -20 -20 -20 -8 11 17 19
-20 -20 -20 -20 -20 -20 -20 -20 -20 -20 -20 -20 -20 -20 -20 -20 -20 -20 -20 -20 -20 -19 -20 -20 1 8 5
-20 -20 -20 -20 -20 -20 -20 -20 -20 -20 -20 -20 -20 -20 -20 -20 -20 -20 -20 -20 -20 -20 -20 -20 -20 -20 6
-20 -20 -20 -20 -20 -20 -20 -10 0 -18 -20 -20 -14 8 10 -20 -20 -20 -20 -20 -20 -20 -20 -20 -20 -20 -20
-20 -20 -20 -20 -20 -20 -20 -20 -20 -20 -20 -20 3 -4 -20 -20 -20 -20 -20 -20 -20 -20 -20 -20 -20 -20 -20
-20 -20 -20 -20 -20 -20 -20 -20 -20 -20 -20 -19 7 12 -18 -10 -19 -20 -20 -20 -20 -20 -20 -20 -20 -20 -20
-20 -20 -20 -20 -20 -20 -20 -20 -20 -20 -20 -20 -20 -20 -20 -20 -20 -20 -20 -20 -20 -20 -19 -19 -19 -20 -20
-20 -20 -20 -20 -20 -20 -20 -20 -20 -20 -20 -20 -20 -20 -20 -20 -20 -20 -20 -19 3 1 -5 -9 -16 -13 -8
-20 -20 -20 -20 -20 -20 -20 -20 -20 -20 -20 -19 -20 -20 -11 -20 -20 -20 -20 -13 -20 -20 -20 -20 -20 -20 -20
-20 -20 -20 -20 -20 -20 -20 -20 -20 -20 -20 -20 -20 -20 -20 -20 -20 -20 -20 -20 -20 -20 -20 -20 -20 -20 -20
-20 -20 -20 -20 -20 -20 -20 -20 -20 -20 -20 -20 -20 -20 -20 -20 -20 -20 -20 -20 -20 -20 -20 -20 -20 -20 -20
-20 -20 -20 -20 -20 -20 -20 -20 -20 -20 -20 -20 -20 -20 -20 -20 -20 -20 -20 -20 -20 -20 -20 -20 -20 -20 -20
-20 -20 -20 -20 -20 -20 -20 -20 -20 -20 -20 -20 -20 -20 -20 -20 -20 -20 -20 -20 -20 -20 -20 -20 -20 -20 -20
-20 -20 -20 -20 -20 -20 -20 -20 -20 -20 -20 -20 -20 -20 -20 -20 -20 -20 -20 -20 -20 -20 -20 -20 -20 -20 -20

GFSFLT2_prec_radar_087.txt.gz
Reflectivity
-20 -20 -20 -20 -20 -20 -7 -20 9 -19 -20 -7 -10 7 -13 10 -20 9 14 -12 -20 -20 -10 0 9 -4 -20
-20 -20 -20 -20 -20 -20 -20 -20 -20 7 11 -6 -3 1 -4 -20 -20 -18 -20 -20 -19 -20 2 -6 -3 14 8
-20 -20 -16 -20 -20 -20 -20 -20 -20 -6 6 10 9 8 -16 -20 -20 -20 -20 -20 -20 -20 -20 6 18 17 13
-20 3 -20 -20 -20 -20 -20 -20 -20 -20 -10 1 -2 -13 -20 -14 -20 -20 -20 -20 -20 -20 -20 -19 -7 20 17
-20 -20 -20 -20 -20 -20 -20 -20 -20 -20 4 -19 -20 -18 -20 -20 -20 -15 2 -20 -20 -20 -20 -20 -6 -16 13
-20 -20 -20 -20 -20 -4 9 -20 -20 -20 -20 -20 -20 -20 -20 -20 -20 -20 -20 -15 -20 -20 -20 -20 -20 -20 -20
-20 -20 -20 -20 -11 -20 -20 -20 -15 -20 -20 -20 -20 -20 -20 -20 -18 3 -16 -8 -8 -20 -20 -20 -20 -20 -20
-20 -20 -20 -20 -20 -20 -20 -20 -20 -20 -20 -20 -20 -20 -20 -20 -13 -18 -20 -18 -20 -20 -20 -20 -20 -20 -20
-20 -20 -20 -20 -20 -20 -20 -20 -20 -20 -20 -20 -20 -20 -20 -20 -20 -20 -20 -20 -20 -20 -20 3 -20 -20 -20
-20 -20 -20 -20 -20 -20 -20 -20 -20 -20 -20 -20 -20 -20 -20 -20 -20 -20 -20 -20 -20 -20 -20 -20 -20 -20 -20
-20 -20 -20 -20 -20 -20 -20 -20 -20 -20 -20 -20 -20 -20 -20 -20 -20 -20 -20 -20 -20 -20 -15 -6 -4 -8 -11
-20 -20 -20 -20 -20 -20 -20 -20 -20 -20 -20 -20 -20 -20 -20 -20 -20 -20 -20 -20 -20 -20 -20 -20 -20 -20 -20
-20 -20 -20 -20 -20 -20 -20 -20 -20 -20 -20 -20 -20 -20 -20 -20 -20 -20 -20 -20 -20 -20 -20 -20 -20 -20 -20
-20 -20 -20 -20 -20 -20 -20 -20 -20 -20 -20 -20 -20 -20 -20 -20 -20 -20 -20 -20 -20 -20 -20 -20 -20 -20 -20
-20 -20 -20 -20 -20 -20 -20 -20 -20 -20 -20 -20 -20 -20 -20 -20 -20 -20 -20 -20 -20 -20 -20 -20 -20 -20 -20
-20 -20 -20 -20 -20 -20 -20 -20 -20 -20 -20 -20 -20 -20 -20 -20 -20 -20 -20 -20 -20 -20 -20 -20 -20 -20 -20
-20 -20 -20 -20 -20 -20 -20 -20 -20 -20 -20 -20 -20 -20 -20 -20 -20 -20 -20 -20 -20 -20 -20 -20 -20 -20 -20

GFSFLT2_prec_radar_090.txt.gz
Reflectivity
-20 -20 -20 -20 -20 -20 -20 -6 -10 -20 4 -20 -19 -1 -6 -18 -20 -20 8 14 -5 -15 -20 -8 6 11 -19
-20 -20 -20 -20 -20 -20 -20 -20 -20 -7 2 -20 -11 -12 7 8 11 -12 -20 -20 -20 -20 -20 -16 18 18 0
-20 -20 -20 -20 -20 -20 -20 -20 -20 -20 -20 6 -12 -2 -11 -16 -20 -20 -20 -20 -20 -20 -20 -20 11 23 15
-2 -9 -20 -20 -20 -20 -20 -20 -20 -20 -2 -5 -16 -20 -20 -15 -20 -20 -20 -20 -20 -20 -20 -20 -8 11 18
-20 -17 -20 -20 -20 -20 -20 -20 -20 -20 -20 -20 -20 -19 -16 8 -20 -20 -20 -20 -20 -20 -9 -20 -20 7 12
-20 -20 -20 -20 -20 -20 -20 -20 -20 -20 -20 -20 -20 -20 -20 -20 -20 -20 -20 -20 -20 -20 -6 -3 -20 -20 0
-20 -20 -20 -20 -20 -20 -20 -17 -5 -20 -20 -20 -20 -20 -20 -20 -20 -20 -20 -20 -20 -20 -20 -20 -20 -20 -20
-20 -20 -20 -20 -20 -20 -20 -20 -20 -20 -20 -20 -20 -20 -20 -20 -20 -20 -20 -20 -20 -20 -20 -20 -20 -20 -20
-20 -20 -20 -20 -20 -20 -20 -20 -20 -20 -20 -20 -20 -20 -20 -20 -20 -20 -20 -20 -20 -17 7 -1 -20 -20 -20
-20 -20 -20 -20 -20 -20 -20 -20 -20 -20 -20 -20 -20 -20 -20 -20 -20 -20 -20 -20 -20 -20 -20 -20 -20 -20 -20
-20 -20 -20 -20 -20 -20 -20 -20 -20 -20 -20 -20 -20 -20 -20 -20 -20 -20 -20 -20 -20 -20 -20 -20 -20 -20 -20
-20 -20 -20 -20 -20 -20 -20 -20 -20 -20 -20 -20 -20 -20 -20 -20 -20 -20 -20 -20 -20 -20 -20 -20 -20 -20 -20
-20 -20 -20 -20 -20 -20 -20 -20 -20 -20 -20 -20 -20 -20 -20 -20 -20 -20 -20 -20 -20 -20 -20 -20 -20 -20 -20
-20 -20 -20 -20 -20 -20 -20 -20 -20 -20 -20 -20 -20 -20 -20 -20 -20 -20 -20 -20 -20 -20 -20 -20 -20 -20 -20
-20 -20 -20 -20 -20 -20 -20 -20 -20 -20 -20 -20 -20 -20 -20 -20 -20 -20 -20 -20 -20 -20 -20 -20 -20 -20 -20
-20 -20 -20 -20 -20 -20 -20 -20 -20 -20 -20 -20 -20 -20 -20 -20 -20 -20 -20 -20 -20 -20 -20 -20 -20 -20 -20
-20 -20 -20 -20 -20 -20 -20 -20 -20 -20 -20 -20 -20 -20 -20 -20 -20 -20 -20 -20 -20 -20 -20 -20 -20 -20 -20

GFSFLT2_prec_radar_093.txt.gz
Reflectivity
-20 -20 -19 -20 -20 -20 -20 -20 -17 8 -11 -11 -7 -1 -9 2 -20 -20 -20 -18 13 11 10 -14 -2 -3 9
-20 -20 -20 -20 -20 -20 -20 -20 -20 -3 -19 -13 -19 -20 -20 -20 -20 -4 -13 -20 -19 -19 -20 -20 -20 14 13
-20 -20 -20 -20 -20 -20 -20 -20 -20 12 2 3 -20 -20 -20 -10 -5 0 -20 -20 -20 -20 -20 -20 -20 12 23
-20 -20 -20 -20 -20 -20 -20 -20 -20 -20 -20 -20 -20 -20 -19 -20 -20 -20 -20 -20 -20 -20 -20 -20 -20 3 16
-20 -20 -20 -20 -20 -20 -20 -20 -20 -20 -20 -20 -20 -20 -18 5 -17 -20 -20 -20 -20 -20 -20 -20 -20 -15 6
-20 -20 -20 -20 -20 -20 -20 -20 -20 -20 -20 -20 -20 -20 -20 -20 -20 -20 -20 -20 -20 -20 -20 -20 -20 -20 2
-20 -20 -20 -20 -20 -20 -20 -20 -20 -20 -20 -20 -20 -20 -20 -20 -20 -20 -20 -20 -20 -20 -20 -20 -20 -20 -20
-20 -20 -20 -20 -20 -20 -20 -20 -20 -20 -20 -20 -20 -20 -20 -20 -20 -20 -20 -20 -20 -20 -20 -20 -20 -20 -20
-20 -20 -20 -20 -20 -20 -20 -20 -20 -20 -20 -20 -20 -20 -20 -20 -20 -20 -20 -20 -20 -20 3 2 -20 -20 -20
-20 -20 -20 -20 -20 -20 -20 -20 -20 -20 -20 -20 -20 -20 -20 -20 -20 -20 -20 -20 -20 -20 -20 -20 -20 -20 -20
-20 -20 -20 -20 -20 -20 -20 -20 -20 -20 -20 -20 -20 -20 -20 -20 -20 -20 -20 -20 -20 -20 -20 -20 -20 -20 -20
-20 -20 -20 -20 -20 -20 -20 -20 -20 -20 -20 -20 -20 -20 -20 -20 -20 -20 -20 -20 -20 -20 -20 -20 -20 -20 -20
-20 -20 -20 -20 -20 -20 -20 -20 -20 -20 -20 -20 -20 -20 -20 -20 -20 -20 -20 -20 -20 -20 -20 -20 -20 -20 -20
-20 -20 -20 -20 -20 -20 -20 -20 -20 -20 -20 -20 -20 -20 -20 -20 -20 -20 -20 -20 -20 -20 -20 -20 -20 -20 -20
-20 -20 -20 -20 -20 -20 -20 -20 -20 -20 -20 -20 -20 -20 -20 -20 -20 -20 -20 -20 -20 -20 -20 -20 -20 -20 -20
2 -20 -20 -20 -20 -20 -20 -20 -20 -20 -20 -20 -20 -20 -20 -20 -20 -20 -20 -20 -20 -20 -20 -20 -20 -20 -20
11 -3 0 -20 -20 -20 -20 -20 -20 -20 -20 -20 -20 -20 -20 -20 -20 -20 -20 -20 -20 -20 -20 -20 -20 -20 -20

GFSFLT2_prec_radar_096.txt.gz
Reflectivity
-15 -19 -20 -20 -20 -20 -20 -20 -19 -13 -20 3 -20 -20 -14 -20 -20 -20 -20 -20 -20 14 9 15 9 9 4
-4 -12 -20 -17 -12 -9 -7 -5 -20 -20 -20 2 -20 -9 -13 -11 -20 -20 -20 -20 -20 -20 -20 -20 -19 -9 2
3 -5 -16 -20 -20 -20 -20 -20 -20 -17 6 -17 -18 7 -20 -20 -20 -20 -20 -20 -20 -20 -20 -20 -20 -20 -5
-16 -14 -20 -20 -20 -20 -20 -20 -20 -20 7 -0 -20 -20 -20 -20 -20 -20 -20 -20 -20 -20 -20 -20 -20 -20 9
-20 -20 -20 -20 -20 -20 -20 -20 -20 -20 -20 -20 -20 -20 -20 -20 -20 -6 -20 -20 -20 -20 -20 -20 -20 -20 -17
-20 -20 -20 -20 -20 -20 -20 -20 -20 -20 -20 -20 -20 -20 -20 -20 -20 -20 -20 -20 -20 -20 -20 -20 -20 -20 -20
-7 35 25 -20 -20 -20 -20 -20 -20 -20 -20 -20 -20 -20 -20 -20 -20 -20 -20 -20 -20 -20 -20 -20 -20 -20 -20
-13 -19 -5 -20 -20 -20 -20 -20 -20 -20 -20 -20 -20 -20 -20 -20 -20 -20 -20 -20 -20 -20 -20 -16 -20 -20 -20
12 -8 4 -20 -20 -20 -20 -20 -20 -20 -20 -20 -20 -20 -20 -20 -20 -20 -20 -20 -20 -20 -20 -0 -20 -20 -20
1 7 -19 -20 -20 -20 -20 -20 -20 -20 -20 -20 -20 -20 -20 -20 -20 -20 -20 -20 -20 -20 -20 -20 -20 -20 -20
-20 -20 -20 -20 -20 -20 -20 -20 -20 -20 -20 -20 -20 -20 -20 -20 -20 -20 -20 -20 -20 -20 -20 -20 -20 -20 -20
-20 -20 -20 -20 -20 -20 -20 -20 -20 -20 -20 -20 -20 -20 -20 -20 -20 -20 -20 -20 -20 -20 -20 -20 -20 -20 -20
-20 -20 -20 -20 -20 -20 -20 -20 -20 -20 -20 -20 -20 -20 -20 -20 -20 -20 -20 -20 -20 -20 -20 -20 -20 -20 -20
-20 -20 -20 -20 -20 -20 -20 -20 -20 -20 -20 -20 -20 -20 -20 -20 -20 -20 -20 -20 -20 -20 -20 -20 -20 -20 -20
-20 -20 -20 -20 -20 -20 -20 -20 -20 -20 -20 -20 -20 -20 -20 -20 -20 -20 -20 -20 -20 -20 -20 -20 -20 -20 -20
7 -0 -20 -20 -20 -20 -20 -20 -20 -20 -20 -20 -20 -20 -20 -20 -20 -20 -20 -20 -20 -20 -20 -20 -20 -20 -20
15 23 14 -10 -20 -20 -20 -20 -20 -20 -20 -20 -20 -20 -20 -20 -20 -20 -20 -20 -20 -20 -20 -20 -20 -20 -20

GFSFLT2_prec_radar_099.txt.gz
Reflectivity
29 34 24 28 17 -18 -20 -15 -14 -20 -20 -20 -20 -20 -19 -20 -20 -20 -20 -20 -20 -20 -15 -15 -20 4 10
34 28 31 34 24 17 -3 -20 -20 -3 -14 -20 -20 -20 -20 -20 -20 -20 -2 -20 -20 -20 -20 -20 -20 -20 -20
20 1 12 16 10 5 -4 -3 -13 -18 -17 -20 -20 -20 -20 -3 -20 -8 -9 -20 -20 -20 -20 -20 -20 -20 -20
33 15 -2 10 20 -9 -20 -20 -20 -20 -20 -9 6 -3 -6 3 -20 -20 -20 -20 -20 -20 -20 -20 -20 -20 -20
34 31 34 -20 -17 -14 -20 -20 -20 -20 -20 -20 -20 -20 -20 -20 -20 -0 2 -20 -20 -20 -20 -20 -20 -20 -20
39 33 -13 -6 -20 -20 -20 -20 -20 -20 -20 -20 -20 -20 -20 -20 -20 -13 2 -20 -20 -20 -20 -20 -20 -20 -20
38 28 -1 -2 8 -16 -16 -20 -20 -20 -20 -20 -20 -20 -20 -20 -12 -20 -20 -20 -20 -20 -20 -20 -17 -19 -19
17 18 4 18 27 31 33 12 -8 -20 -20 -20 -20 -20 -20 -20 -20 -20 -20 -20 -20 -20 -20 -15 -7 -20 -20
25 37 22 25 28 24 7 -3 1 2 -20 -20 -20 -20 -20 -20 -20 -20 -20 -20 -20 -20 -20 -15 -20 -20 -20
0 10 -3 26 -3 -14 -9 -15 -20 -20 -20 -20 -20 -20 -20 -20 -20 -20 -20 -20 -20 -20 -19 -20 -20 -20 -20
-14 3 -2 -6 -20 -20 -17 -20 -20 -20 -20 -20 -20 -20 -20 -20 -20 -20 -20 -20 -20 -14 -20 -20 -20 -20 -20
-9 -19 -17 -13 -20 -20 -20 -20 -20 -20 -20 -20 -20 -20 -20 -20 -20 -20 -20 -20 -20 -20 -20 -20 -20 -20 -20
6 6 23 16 -20 -20 -20 -20 -20 -20 -20 -20 -20 -20 -20 -20 -20 -20 -20 -20 -20 -20 -20 -20 -20 -20 -20
-16 -15 -13 -20 -20 -20 -20 -20 -20 -20 -20 -20 -20 -20 -20 -20 -20 -20 -20 -20 -20 -20 -20 -20 -20 -20 -20
-1 -20 -19 -20 -20 -20 -20 -20 -20 -20 -20 -20 -20 -20 -20 -20 -20 -20 -20 -20 -20 -20 -20 -20 -20 -20 -20
-4 25 0 -20 -20 -20 -20 -20 -20 -20 -20 -20 -20 -20 -20 -20 -20 -20 -20 -20 -20 -20 -20 -20 -20 -20 -20
29 22 24 15 12 3 -18 -20 -17 -19 -20 -20 -20 -20 -20 -20 -20 -20 -20 -20 -20 -20 -20 -20 -20 -20 -20

GFSFLT2_prec_radar_102.txt.gz
Reflectivity
26 9 22 24 23 28 25 14 26 17 13 -3 -10 -20 -20 -20 -20 -20 -20 -20 -20 -20 -20 -20 -20 -20 -20
20 27 21 9 27 30 26 30 26 19 14 1 -20 -20 -20 -20 -20 -20 -20 -20 -20 -20 -20 -20 -20 -20 -20
25 26 24 21 25 28 33 26 24 20 -17 -1 -20 -20 -20 -20 -20 -20 -20 -20 -20 -20 -20 -20 -20 -20 -20
23 13 -2 -8 18 21 27 10 12 -2 -20 -18 -20 -17 6 9 1 -20 -20 -20 -20 -20 -20 -20 -20 -20 -20
32 25 15 21 22 23 11 4 21 -19 -20 -20 -20 -20 -15 10 11 5 -20 -20 -20 -20 -20 -20 -20 -20 -20
23 35 36 25 36 33 31 33 17 -20 -20 -20 -20 -20 -20 -20 -0 -2 -20 -20 -20 -20 -20 -20 -20 -20 -20
6 21 6 12 13 34 36 29 21 -5 -20 -20 -20 -20 -20 -20 -20 -20 -20 -20 -20 -20 -20 -20 -20 -20 -20
17 7 16 18 25 16 29 33 26 8 -2 -17 -20 -20 -20 -20 -20 -20 -20 -20 -20 -20 -20 -20 -20 -16 -20
10 23 25 18 29 15 32 28 27 36 29 -6 -20 -5 -19 -18 -20 -20 -20 -20 -20 -20 -20 -20 -20 -20 -20
-1 -4 -2 29 14 36 13 34 34 34 14 14 9 8 0 -19 -20 -20 -20 -20 -20 -20 -20 -20 -20 -20 -20
9 2 24 -7 24 31 21 35 27 16 -4 1 15 14 4 -20 -20 -20 -20 -20 -20 -20 -20 -20 -20 -20 -20
18 27 24 12 12 24 -1 14 -11 -19 -20 -20 -20 -19 -20 -20 -20 -20 -20 -20 -20 -20 -20 -20 -20 -20 -20
12 8 14 -19 16 13 4 -20 -20 -20 -17 -20 -20 -20 -20 -20 -20 -20 -20 -20 -20 -20 -20 -20 -20 -20 -20
28 28 18 35 22 -6 -18 -20 -20 -20 -15 -16 -20 -20 -20 -20 -20 -20 -20 -20 -20 -20 -20 -20 -20 -20 -20
20 23 36 24 28 18 26 25 -12 0 -20 -20 -20 -20 -20 -20 -20 -20 -20 -20 -20 -20 -20 -20 -20 -20 -20
23 25 34 17 2 -12 7 19 8 -7 -20 -20 -20 -20 -20 -20 -20 -20 -20 -20 -20 -20 -20 -20 -20 -20 -20
22 20 14 20 27 1 11 4 -20 -20 -20 -20 -20 -20 -20 -20 -20 -20 -20 -20 -20 -20 -20 -20 -20 -20 -20

GFSFLT2_prec_radar_105.txt.gz
Reflectivity
-12 -3 -4 20 21 28 23 10 10 27 20 14 11 7 4 -15 -18 -8 -20 -20 -20 -20 -20 -20 -20 -20 -20
16 6 -16 1 -3 9 33 30 29 24 22 8 25 3 -12 -20 -5 -20 -20 -20 -20 -20 -20 -20 -20 -20 -20
30 19 11 9 16 26 27 31 27 28 22 27 23 15 -20 -20 -18 -18 -11 -20 -20 -20 -20 -20 -20 -20 -20
32 19 10 13 25 26 27 22 22 25 22 19 19 -16 -20 -15 -19 -20 -20 -20 -20 -20 -20 -20 -20 -20 -20
31 31 21 13 21 10 26 24 24 21 17 14 0 -16 -3 1 -1 9 -20 -20 -20 -20 -20 -20 -20 -20 -20
22 20 27 30 31 29 19 35 33 27 25 19 -15 -20 -20 -20 14 9 -5 -20 -20 -20 -20 -20 -20 -20 -20
20 -5 6 12 21 33 25 30 34 20 33 34 29 -18 -20 -17 11 13 10 -8 -20 -20 -20 -20 -20 -20 -20
24 9 3 -4 3 22 31 26 23 19 26 27 21 21 13 -12 13 -8 -17 -20 -20 -20 -20 -20 -20 -20 -20
-20 18 27 12 19 12 18 16 34 35 21 14 21 27 14 -1 -11 5 5 -19 -20 -20 -20 -20 -20 -20 -20
-20 -20 0 9 22 9 21 3 1 12 18 23 33 35 8 -19 -20 -20 -19 -20 -20 -20 -20 -20 -20 -20 -20
-20 -18 -19 3 12 5 -4 20 6 22 23 27 35 35 26 14 8 -2 -3 -12 -20 -20 -20 -20 -20 -20 -20
-16 -18 17 24 17 11 4 -2 7 11 7 31 23 12 -1 8 4 7 -10 -20 -20 -18 -20 -20 -20 -20 -20
15 11 -9 17 8 23 26 33 2 6 28 20 4 5 -20 -20 -20 -18 -18 -20 -20 -20 -20 -20 -20 -20 -20
6 25 6 13 32 36 34 2 34 4 8 11 -2 -20 -20 -20 -20 -20 -20 -20 -20 -20 -20 -20 -20 -20 -20
21 25 30 23 24 37 39 39 30 28 34 26 -10 -20 -20 -20 -20 -20 -20 -20 -20 -20 -20 -20 -20 -20 -20
13 22 28 30 22 34 37 34 36 15 15 3 -19 -20 -20 -20 -20 -20 -20 -20 -20 -20 -20 -20 -20 -20 -20
21 10 20 31 32 14 18 37 26 27 28 16 14 9 -20 -20 -20 -20 -20 -20 -20 -20 -20 -20 -20 -20 -20

GFSFLT2_prec_radar_108.txt.gz
Reflectivity
6 8 28 20 20 24 30 19 24 13 -1 4 7 22 18 11 9 -19 2 -16 -12 -7 -20 -20 -16 -20 -20
19 23 19 17 12 18 14 6 5 13 22 20 21 19 22 16 -10 8 -17 -20 -11 -20 -20 -18 -13 -19 -20
25 16 -1 12 24 24 22 12 -17 27 24 26 26 23 19 16 24 8 -20 -20 -20 -20 -20 -20 -20 -20 -20
22 22 15 1 25 20 17 12 15 21 29 26 31 30 27 24 16 -16 -20 -20 -20 -20 -20 -20 -20 -20 -20
20 24 22 21 22 22 20 1 20 24 23 24 27 24 13 8 -10 -20 -20 -20 -20 -20 -20 -20 -20 -20 -20
17 7 -1 8 -0 12 25 21 18 13 9 7 13 6 -7 8 -20 -20 -20 -7 -20 -20 -20 -20 -20 -20 -20
-20 -4 15 -4 9 23 13 11 19 21 25 21 26 21 20 2 -13 -12 -20 -20 -20 -20 -20 -20 -20 -20 -20
3 -1 6 11 -2 5 10 32 29 27 30 20 21 15 17 23 0 -20 -20 -5 -10 -20 -20 -20 -20 -20 -20
-16 -19 -20 -16 20 9 6 30 22 26 6 24 7 20 24 25 29 -2 -3 11 8 -18 -20 -20 -20 -20 -20
2 -19 2 -16 -19 10 13 11 19 32 27 14 15 12 28 32 30 17 9 12 22 -1 -20 -20 -20 -20 -20
4 7 -7 -20 -8 -20 12 17 15 28 -2 -11 15 17 22 15 21 30 7 15 7 -14 -20 -20 -20 -20 -20
-4 2 -20 -20 -20 -20 -3 11 1 -3 33 14 10 -8 -13 1 12 30 28 13 -9 -13 -20 -20 -20 -20 -20
-5 5 2 -5 -20 -9 7 23 12 35 12 6 18 11 27 36 27 19 28 22 5 -12 -20 -20 -20 -20 -20
9 3 20 7 -14 4 20 21 16 13 29 35 25 20 23 24 10 3 17 7 4 -1 -19 -20 -20 -20 -20
5 -1 8 13 -12 8 23 22 23 32 26 35 25 31 32 26 12 5 -13 -20 -20 -8 -20 -20 -20 -20 -20
1 -2 26 13 -4 11 22 27 25 31 33 33 39 25 20 25 32 19 -20 -20 -20 -20 -20 -20 -20 -20 -20
-10 3 21 24 26 26 35 32 35 14 19 28 22 37 25 26 29 21 -3 -20 -20 -20 -20 -20 -20 -20 -20

GFSFLT2_prec_radar_111.txt.gz
Reflectivity
27 11 24 17 28 27 14 -4 5 -6 -8 4 11 -8 4 -9 16 21 19 20 14 3 -20 -20 -20 -20 -20
5 17 26 23 22 28 26 21 17 2 19 23 17 -18 -19 -9 20 23 23 19 19 -0 -14 -20 -20 -20 -20
32 24 33 3 19 23 19 6 10 23 14 21 23 6 -13 23 26 24 24 23 13 7 -18 -20 -20 -20 -20
25 23 27 12 23 14 24 7 -9 -17 13 20 18 19 23 28 24 26 28 22 22 -1 -20 -20 -20 -20 -20
-15 -8 -1 -19 -5 17 10 7 -3 -10 -17 7 13 17 15 20 22 24 28 21 13 -15 -20 -20 -20 -20 -20
-5 11 -5 -19 -6 18 17 9 1 -7 -13 -1 9 20 11 8 19 19 20 18 17 -20 -20 -20 -20 -20 -20
1 6 12 2 1 -1 5 7 -9 -2 4 6 -2 8 -0 3 17 14 11 13 -14 -20 -20 -20 -20 -20 -20
-19 -20 1 12 -14 3 15 8 1 15 15 21 6 -1 4 6 21 15 20 3 -20 -20 -20 -20 -20 -20 -20
-20 -20 3 0 -7 5 -19 17 15 -1 -1 18 19 18 5 10 -0 16 11 14 -1 3 -6 -20 -20 -20 -20
-20 -20 -20 -20 -20 -20 8 0 13 10 -5 16 20 20 28 23 21 20 13 18 17 -8 -18 5 8 -1 -20
-20 -20 -20 -20 -20 -7 -7 -0 13 21 6 4 1 30 30 27 14 23 22 18 20 23 -20 -17 -0 11 13
-5 2 -19 -20 -20 -18 -9 -18 6 25 25 15 8 17 23 31 33 25 20 23 26 26 6 -16 -15 -20 -20
-20 -19 -15 3 1 -12 -12 -6 -12 7 22 28 6 18 15 33 30 20 15 24 23 26 18 -20 -6 -20 -20
4 7 -8 -5 4 -20 -10 -2 10 -3 -5 26 22 8 23 26 25 13 21 30 12 29 30 -1 7 -20 -20
-14 -20 -17 -20 -19 1 -1 12 7 6 -17 19 8 27 25 21 14 16 25 25 17 34 33 26 -2 -19 -20
-20 -5 7 -5 -10 6 16 22 18 3 6 6 27 20 24 28 25 22 32 31 35 32 27 18 -4 5 -18
1 -14 -3 -0 7 -5 -0 12 -7 14 19 -13 26 17 19 21 21 31 25 26 26 28 23 4 7 11 11

GFSFLT2_prec_radar_114.txt.gz
Reflectivity
-10 20 23 16 20 28 19 12 24 30 9 13 28 3 -16 -20 -11 10 4 4 -8 18 27 18 -20 -20 -20
-14 13 23 24 16 19 18 26 27 28 24 23 17 12 -1 -20 -18 0 8 1 -16 13 20 21 1 -10 -20
12 28 29 25 36 33 34 31 29 29 30 27 19 20 12 16 -5 -18 2 -5 -19 14 27 14 6 -20 -20
8 19 32 32 36 33 27 27 23 19 27 28 24 5 5 8 20 20 14 -5 13 28 19 18 -8 -20 -17
1 -7 -6 1 26 31 16 12 -8 9 -6 16 24 15 -1 10 13 19 21 22 34 27 22 12 -20 -0 -20
5 10 10 11 8 5 6 8 -11 8 -12 -13 -20 -20 -16 -19 17 23 25 28 26 25 21 14 3 6 -20
-20 -18 -0 1 -11 2 3 -3 9 0 2 -1 -20 -16 7 9 21 23 24 24 19 19 19 26 23 -14 -20
-20 -20 -20 -20 -20 -15 1 -19 -3 -10 -10 4 -8 -10 0 12 22 15 10 -14 4 6 9 11 5 -20 -20
-20 -20 -20 -20 -20 -20 -20 -1 -5 -12 -20 -1 -2 0 12 2 10 19 -20 12 12 -5 2 2 -13 -16 -20
-20 -20 -20 -20 -20 -20 -6 8 5 -9 -11 8 -5 -8 6 17 10 19 17 23 21 19 8 4 -20 -20 -20
-20 -20 -20 -20 -20 -20 -17 -20 -8 9 12 2 7 19 -16 6 5 22 23 26 22 18 13 -3 9 -16 -20
-20 -20 -20 -20 -20 -20 -20 -20 -17 -1 -1 12 6 12 5 -1 -5 20 25 20 27 27 20 12 15 1 4
-20 -20 -20 -20 -20 -20 -20 -20 -20 -20 -17 -19 2 2 7 17 12 1 26 24 22 30 27 25 17 10 5
-20 -20 -20 -20 -20 -17 -8 -12 -8 -3 -20 -20 -20 -14 3 15 13 -8 19 23 21 22 26 28 23 12 22
-20 -20 -20 -20 -20 -20 3 -10 -7 4 -4 -20 -20 16 5 23 22 3 23 17 17 17 28 28 23 11 22
-20 -20 -18 -20 -20 -16 8 5 -4 -7 16 -5 6 -2 1 13 26 22 10 16 23 20 24 21 26 18 20
-20 -8 -20 -20 5 -14 -20 -2 2 -1 6 1 7 -4 -11 3 -7 10 -7 -1 23 21 26 35 26 18 31

GFSFLT2_prec_radar_117.txt.gz
Reflectivity
4 19 5 -8 1 -5 1 4 11 18 15 9 19 21 16 19 29 21 16 22 -2 -4 22 22 19 16 9
-19 -7 -5 20 5 -2 24 26 34 33 18 15 13 16 23 27 24 29 23 18 -20 5 -1 19 4 15 24
-17 -1 12 16 28 21 -2 23 16 31 36 24 24 28 23 20 29 27 23 12 -20 -12 18 23 17 10 20
2 4 6 -20 -12 5 13 24 22 12 25 26 26 32 27 35 22 23 25 24 7 11 17 26 20 20 23
10 1 -20 -2 -1 -17 -20 22 32 33 34 26 33 29 19 21 13 11 -12 -13 23 25 23 23 24 27 24
-20 -20 -20 -20 -12 -11 -20 -20 7 16 29 11 14 4 0 -16 24 25 16 -11 -3 15 25 28 29 33 29
-20 -20 -20 -20 -20 -20 -19 1 -2 1 -9 -7 -2 -12 4 -16 -13 -13 -20 -20 6 21 31 31 32 33 28
-20 -20 -20 -20 -20 -20 -17 -20 -7 -19 2 13 -1 -13 -20 -14 2 4 -3 10 18 20 29 28 30 31 28
-20 -20 -20 -20 -20 -20 -20 -8 -17 -18 -0 6 -11 -20 -20 -20 -20 -19 16 16 22 27 26 25 16 18 18
-20 -20 -20 -20 -20 -20 -4 8 -5 -20 -20 0 -4 11 1 -20 -20 -20 -16 17 15 22 21 19 17 9 -6
-20 -20 -20 -20 -20 -20 -20 -20 -13 -6 -10 -19 4 -3 -1 14 -14 -17 -6 12 14 18 25 23 16 9 -7
-20 -20 -20 -20 -20 -20 -20 -20 -20 -20 -20 -20 -8 -20 -13 -2 -3 -19 -13 5 19 23 21 26 19 19 18
-20 -20 -20 -20 -20 -20 -20 -20 -20 -20 -18 -8 -14 -20 -8 -20 -6 5 10 4 11 26 19 21 19 15 19
-20 -20 -20 -20 -20 -20 -20 -20 -8 -20 -20 -20 -14 -2 -18 -18 5 3 2 2 -2 3 14 18 21 17 12
-20 -20 -20 -20 -20 -20 -20 -20 -7 -2 -4 -20 -16 -8 2 -13 5 7 3 -5 1 9 17 27 20 18 12
-20 -20 -20 -20 -20 -20 -2 -20 -20 -20 -10 -12 -11 -8 10 0 0 -9 6 20 -2 5 12 29 25 18 25
-19 -20 -20 -20 -19 -20 -20 -20 -3 -0 -16 -8 8 -9 7 1 -20 -20 3 15 7 -0 12 17 18 9 23

GFSFLT2_prec_radar_120.txt.gz
Reflectivity
1 -8 -20 -4 -19 -6 -17 5 -19 16 17 -2 -19 -3 21 26 19 2 16 26 34 31 26 19 15 21 16
-0 -9 22 2 9 15 13 -20 -17 -15 11 -20 8 25 23 24 18 12 28 24 23 28 19 22 24 18 -9
-20 -20 2 9 -19 2 9 -19 -18 14 5 9 20 31 25 34 26 7 -3 14 17 26 29 12 14 25 -19
-12 -16 -16 7 3 -20 -16 -6 -8 1 17 11 21 22 17 22 22 31 25 20 22 21 28 20 14 18 10
-17 -11 -20 -20 -8 5 2 -16 8 -6 -17 -2 15 15 7 24 28 26 17 25 28 28 27 17 14 8 4
-20 -20 -20 -14 -10 -20 -9 10 -0 12 -19 10 26 16 26 33 34 32 31 25 24 19 21 19 16 25 24
-20 -12 -5 -19 -19 1 -17 -20 -19 -15 -4 8 15 -6 27 33 31 25 23 22 19 13 17 17 -2 26 28
-20 -20 -20 -12 -20 -20 -20 -20 -20 -20 -20 -11 -1 10 16 25 12 21 11 -4 -15 15 22 -14 14 26 32
-20 -20 -20 -20 -20 -20 -20 -20 -20 -14 -20 -20 -20 -16 -10 11 13 -9 -7 -4 11 10 -3 6 9 25 30
-20 -20 -20 -20 -20 -20 -20 -3 -3 -18 -20 -20 -20 -19 -8 -20 -20 -20 -19 3 7 13 13 1 15 19 22
-20 -20 -20 -20 -20 -20 -20 -20 -20 -15 -20 -14 -13 -20 -9 -10 -20 -20 -18 -12 -7 21 22 24 23 19 18
-20 -20 -20 -20 -20 -20 -20 -20 -20 -20 -20 -20 -10 -20 -11 4 -9 -11 -11 -20 -18 2 14 26 23 22 23
-20 -20 -20 -20 -20 -20 -20 -20 -20 -20 -20 -20 -18 -20 -8 -19 0 -3 -6 -20 -20 -18 17 13 14 17 15
10 -18 -20 -20 -20 -20 -20 -20 -20 -20 -20 -20 -20 -0 -17 6 10 -17 -7 -15 -20 -17 -7 19 23 22 14
-20 -20 -20 -20 -20 -20 -20 -20 -20 -20 -20 -20 -20 -20 -20 -20 -5 8 -14 -16 -16 2 5 15 25 22 22
-20 -20 -20 -20 -20 -20 -20 -20 -20 -20 -20 -20 -20 -20 -20 -9 -12 -20 -12 -4 -5 -8 -15 5 8 22 24
-20 -20 -20 -20 -19 -20 -20 -20 -20 -20 -20 -20 -20 -19 -12 -19 -20 -1 -18 -20 -20 -3 10 8 3 -8 -3

GFSFLT2_prec_radar_123.txt.gz
Reflectivity
-20 -20 -20 -0 -12 -3 -6 -20 -15 -20 -20 -8 -9 -20 -20 -14 -1 -11 -1 -1 -12 -20 -20 16 28 33 26
-20 -20 -20 -20 -20 -17 -20 -20 1 12 -11 -20 8 -3 -20 2 -19 5 18 21 23 2 -20 -6 16 26 30
-20 -20 -20 -20 -20 -20 -20 -20 -1 -14 10 15 -20 -20 -17 -17 -20 -20 -17 -8 -4 -18 2 7 19 24 31
-20 -20 -20 -20 -20 -20 -20 -20 -20 -20 -20 -20 -20 -14 -16 -1 9 0 22 29 13 8 -20 -19 24 31 32
-20 -20 -20 -20 -20 -20 -20 -20 -20 -20 -20 -20 -20 -15 -5 11 3 13 21 19 23 27 33 14 15 24 24
-20 -20 -20 -20 -20 -20 -20 -15 -6 8 -12 -20 -20 -20 -18 -15 8 31 22 26 17 21 31 17 12 22 27
-20 -20 -20 -20 -20 -20 -20 -20 -20 -6 5 -4 -18 -9 12 10 18 33 33 27 23 21 28 27 20 25 25
-20 -20 -20 -20 -20 -20 -20 -20 -20 -20 -20 -9 -19 -13 10 7 5 20 1 31 27 30 33 33 26 22 20
-19 -20 -17 6 -20 -20 -20 -20 -20 -20 -20 -20 -19 -20 -15 -8 -20 7 25 1 30 33 36 31 26 19 6
-20 -20 -20 -20 -20 -20 -20 -20 -20 -19 -20 -20 -20 -10 -19 3 -20 -20 -5 16 3 27 29 25 20 21 -5
-20 -20 -20 -20 -20 -20 -20 -20 -20 -20 -20 -20 -14 -20 -4 -20 -20 -20 -20 -12 9 4 19 16 17 10 0
-20 -20 -20 -20 -20 -20 -20 -20 -20 -20 -20 -20 -15 -20 -20 -8 -14 -20 -20 -20 -10 3 -0 14 19 21 21
-20 -20 -20 -20 -20 -20 -20 -20 -20 -20 -20 -20 -20 -20 3 6 2 -20 -20 -20 -20 -18 -20 -20 -1 21 17
-20 -20 -20 -20 -20 -20 -20 -20 -20 -20 -20 -20 -20 -20 -20 -17 0 1 -20 -5 -20 -20 -20 -20 14 22 10
-20 -20 -20 -20 -20 -20 -20 -20 -20 -20 -20 -20 -20 -20 -20 -20 -10 -17 -20 -20 -20 -20 -20 -20 -18 11 25
-20 -20 -20 -20 -20 -20 -20 -12 -20 -20 -20 -20 -20 -20 -20 -20 -20 -20 -20 -20 -20 -20 -20 -19 -13 -3 20
-20 -20 -20 -20 -20 -20 -20 -20 -20 -20 -20 -20 -20 -20 -20 -20 -20 -20 -20 -20 -20 -20 -20 -19 6 -20 6